GEFSMW_con_probscp_084.txt.gz
Probability
9 13 16 18 22 25 25 23 19 15 11 7 4 2 1 0 0 0 0 0 0 0 0 0 0 0 0 0 0 0 0 0 0 0 0 0 0 0 0 0 0 0 0
7 10 14 16 18 20 22 23 20 14 9 5 3 1 0 0 0 0 0 0 0 0 0 0 0 0 0 0 0 0 0 0 0 0 0 0 0 0 0 0 0 0 0
5 6 10 13 14 13 16 18 16 11 7 4 1 0 0 0 0 0 0 0 0 0 0 0 0 0 0 0 0 0 0 0 0 0 0 0 0 0 0 0 0 0 0
4 4 6 10 11 9 9 10 9 8 5 3 1 0 0 0 0 0 0 0 0 0 0 0 0 0 0 0 0 0 0 0 0 0 0 0 0 0 0 0 0 0 0
5 3 4 8 9 7 6 6 6 5 3 1 0 0 0 0 0 0 0 0 0 0 0 0 0 0 0 0 0 0 0 0 0 0 0 0 0 0 0 0 0 0 0
4 4 4 5 7 7 6 5 7 5 3 1 1 1 0 0 0 0 0 0 0 0 0 0 0 0 0 0 0 0 0 0 0 0 0 0 0 0 0 0 0 0 0
4 4 4 4 6 6 5 5 7 7 4 2 2 2 1 0 0 0 0 0 0 0 0 0 0 0 0 0 0 0 0 0 0 0 0 0 0 0 0 0 0 0 0
4 4 3 3 5 6 4 4 7 7 5 3 3 3 2 1 0 0 0 0 0 0 0 0 0 0 0 0 0 0 0 0 0 0 0 0 0 0 0 0 0 0 0
4 4 2 2 3 5 4 4 6 6 4 3 3 3 3 2 0 0 0 0 0 0 0 0 0 0 0 0 0 0 0 0 0 0 0 0 0 0 0 0 0 0 0
4 4 2 1 1 3 3 3 4 5 5 5 5 5 6 4 2 1 0 0 0 0 0 0 0 0 0 0 0 0 0 0 0 0 0 0 0 0 0 0 0 0 0
2 2 2 1 1 3 3 3 3 5 7 10 12 12 12 10 6 3 1 1 1 0 0 0 0 0 0 0 0 0 0 0 0 0 0 0 0 0 0 0 0 0 0
0 1 1 0 1 4 6 5 5 8 12 17 23 25 23 19 12 6 3 2 2 1 0 0 0 0 0 0 0 0 0 0 0 0 0 0 0 0 0 0 0 0 0
0 1 1 1 3 7 10 10 11 13 17 25 33 37 36 31 21 11 6 5 4 3 2 0 0 0 0 0 0 0 0 0 0 0 0 0 0 0 0 0 0 0 0
1 2 3 4 6 10 14 15 17 20 26 33 40 44 44 39 30 19 13 9 7 6 4 1 0 0 0 0 0 0 0 0 0 0 0 0 0 0 0 0 0 0 0
5 6 8 11 14 15 17 20 26 33 39 44 46 48 47 43 37 28 19 13 9 8 7 4 2 1 0 0 0 0 0 1 1 0 0 0 0 0 0 0 0 0 0
14 15 16 20 22 23 23 28 36 44 50 53 52 51 51 48 41 32 22 15 11 10 10 7 4 3 2 0 0 0 1 2 3 3 3 2 0 0 0 0 0 0 0
21 21 22 25 28 29 30 34 40 47 51 53 53 52 52 48 40 30 22 16 13 13 14 12 9 8 5 1 0 0 1 2 5 9 11 9 5 2 0 0 0 1 1
20 19 20 23 27 29 30 32 37 42 45 46 46 46 43 38 33 27 21 18 16 17 19 18 16 15 11 3 0 0 0 2 7 12 17 18 13 5 1 1 1 2 3
16 15 15 18 24 29 30 30 33 37 37 36 36 34 31 28 26 24 21 20 20 21 21 20 20 22 17 7 0 0 1 3 8 16 19 18 13 6 1 2 4 5 6
16 17 16 18 22 27 28 27 28 29 27 24 23 22 19 19 20 20 20 20 21 21 19 18 21 25 22 10 1 0 1 2 8 18 19 12 6 2 1 3 6 7 7
16 19 21 20 20 20 19 18 18 18 14 11 11 10 9 10 11 14 16 17 16 17 17 18 21 23 19 10 2 0 0 1 6 14 17 11 3 0 0 1 3 5 5
12 15 17 17 15 13 11 9 8 7 4 3 3 3 3 3 4 6 9 10 11 11 13 16 17 18 14 7 2 0 0 0 3 8 12 10 3 0 0 0 0 1 1
5 7 8 7 7 7 6 4 3 2 2 1 1 1 0 0 1 2 2 3 5 5 6 9 10 11 11 7 4 3 2 0 1 3 4 3 1 0 0 0 0 0 0
2 2 1 1 1 2 1 1 1 1 1 1 2 1 1 0 0 1 1 1 2 2 2 4 4 5 6 6 5 5 4 2 1 1 1 1 1 1 1 1 3 4 4
0 0 0 0 0 0 0 0 0 0 0 1 1 1 1 1 1 1 2 2 2 1 1 2 2 2 2 2 2 3 4 3 2 1 1 2 2 2 2 4 9 12 12
0 0 0 0 0 0 0 0 0 0 0 0 0 0 0 1 1 1 1 1 1 1 1 1 1 1 1 0 0 1 2 2 2 1 1 1 1 2 3 5 11 16 18

GEFSMW_con_probscp_090.txt.gz
Probability
27 33 37 41 46 50 49 45 38 33 28 24 19 16 10 5 3 3 2 1 0 0 0 0 0 0 0 0 0 0 0 0 0 0 0 0 0 0 0 0 0 0 0
30 34 37 39 44 47 46 42 36 31 26 21 16 12 8 5 3 3 2 1 0 0 0 0 0 0 0 0 0 0 0 0 0 0 0 0 0 0 0 0 0 0 0
31 33 34 35 37 39 39 36 33 30 24 17 12 8 5 4 3 3 1 0 0 0 0 0 0 0 0 0 0 0 0 0 0 0 0 0 0 0 0 0 0 0 0
28 29 30 30 30 31 31 31 31 29 23 16 10 6 4 3 3 2 1 0 0 0 0 0 0 0 0 0 0 0 0 0 0 0 0 0 0 0 0 0 0 0 0
24 26 27 26 25 26 27 28 30 28 23 15 9 6 4 3 3 3 2 1 0 0 0 0 0 0 0 0 0 0 0 0 0 0 0 0 0 0 0 0 0 0 0
22 24 25 24 23 24 25 26 26 26 21 14 8 5 4 4 5 5 4 1 0 0 0 0 0 0 0 0 0 0 0 0 0 0 0 0 0 0 0 0 0 0 0
20 24 25 23 23 23 23 23 23 23 19 14 10 6 5 6 7 7 5 2 0 0 1 1 0 0 0 0 0 0 0 0 0 0 0 0 0 0 0 0 0 0 0
17 23 26 24 23 23 24 25 25 23 19 16 14 11 9 8 7 7 6 2 0 2 4 3 0 0 0 0 0 0 0 0 0 0 0 0 0 0 0 0 0 0 0
11 18 24 25 23 23 25 29 31 29 23 19 17 14 13 11 10 10 8 4 2 5 7 5 1 0 0 0 0 0 0 0 0 0 0 0 0 0 0 0 0 0 0
5 13 22 25 23 21 23 30 35 35 29 23 20 18 17 18 18 17 14 9 8 9 10 8 2 0 0 0 0 0 0 0 0 0 0 0 0 0 0 0 0 0 0
5 10 18 23 22 20 23 29 34 36 31 26 25 25 27 29 29 27 24 18 16 18 16 12 6 1 0 0 1 1 0 0 0 0 0 0 0 0 0 0 0 0 0
9 11 16 20 20 21 24 29 32 34 33 33 35 36 39 43 43 40 37 33 29 25 21 17 11 4 2 2 2 2 1 0 0 0 0 0 0 0 0 0 0 0 0
15 17 21 23 22 26 29 31 32 34 37 44 50 51 52 55 57 55 52 51 45 35 27 24 18 10 7 6 6 5 4 2 1 1 2 2 2 3 2 1 0 0 0
23 27 34 35 35 38 41 39 38 40 46 55 63 66 66 66 68 68 66 65 58 46 38 34 29 21 15 13 13 12 10 9 7 7 7 6 5 7 6 3 1 1 0
32 38 48 54 54 55 55 52 51 53 58 65 71 73 73 73 75 76 76 73 65 54 48 45 39 30 20 15 17 18 19 21 20 18 18 13 9 7 6 3 1 1 1
39 46 57 65 69 69 67 66 65 66 68 71 73 75 75 76 77 77 78 76 69 61 56 52 46 36 22 11 10 16 23 29 32 33 30 22 11 7 4 2 1 1 0
47 51 58 66 71 73 72 72 72 72 71 71 71 74 77 78 77 75 75 76 74 70 65 59 53 43 27 9 3 7 16 24 30 36 39 32 20 13 11 7 3 1 1
52 53 55 60 66 68 67 66 66 66 65 64 66 69 72 74 74 72 71 73 75 74 70 65 59 52 36 15 3 1 5 12 18 26 34 36 30 21 17 14 12 10 8
48 49 50 53 58 60 58 54 52 53 53 52 55 58 60 62 64 65 65 67 68 67 64 61 61 57 43 22 5 0 2 5 10 16 21 24 24 19 12 12 19 22 20
39 40 43 46 48 50 49 46 43 41 39 39 41 43 44 46 48 50 53 55 57 56 52 52 56 58 47 26 7 0 2 7 11 12 11 9 8 8 4 7 15 20 20
29 30 33 35 36 37 37 37 34 31 29 28 29 30 29 29 30 34 38 40 42 43 42 45 50 50 42 23 6 0 2 7 10 9 7 3 1 1 1 3 6 8 8
18 19 21 22 22 22 23 24 23 23 21 19 19 19 19 18 19 23 26 28 27 27 29 33 37 36 29 16 4 0 1 3 5 5 3 1 0 0 0 0 1 1 1
7 7 8 9 9 9 10 10 12 13 12 10 8 8 10 11 12 15 16 16 15 13 14 16 17 17 14 8 2 0 0 0 1 1 1 0 0 0 0 0 0 0 0
1 1 1 1 2 2 2 2 3 4 3 2 1 1 2 4 6 6 6 6 6 5 5 4 4 4 5 3 1 0 0 0 0 0 0 0 0 0 0 0 0 0 0
0 0 0 0 0 0 0 0 0 0 0 0 0 0 0 1 1 1 1 1 1 1 1 1 1 0 1 1 0 0 0 0 0 0 0 0 0 0 0 0 0 0 0
0 0 0 0 0 0 0 0 0 0 0 0 0 0 0 0 1 0 0 0 0 0 0 0 0 0 0 0 0 0 0 0 0 0 0 0 0 0 0 0 0 0 0

GEFSMW_con_probscp_096.txt.gz
Probability
25 24 23 24 25 26 24 20 16 16 15 11 6 4 3 2 1 0 0 0 0 0 0 0 0 0 0 0 0 0 0 0 0 0 0 0 0 0 0 0 0 0 0
26 24 22 20 21 23 22 20 16 13 11 8 5 3 3 3 2 1 0 0 0 0 0 0 0 0 0 0 0 0 0 0 0 0 0 0 0 0 0 0 0 0 0
28 26 21 17 17 19 20 18 14 9 6 5 4 3 3 3 2 1 0 0 0 0 0 0 0 0 0 0 0 0 0 0 0 0 0 0 0 0 0 0 0 0 0
28 26 22 17 16 18 18 16 12 7 4 4 4 3 3 3 2 1 0 0 0 0 0 0 0 0 0 0 0 0 0 0 0 0 0 0 0 0 0 0 0 0 0
23 22 19 16 14 14 14 13 10 7 4 4 3 2 2 2 1 0 0 0 0 0 0 0 0 0 0 0 0 0 0 0 0 0 0 0 0 0 0 0 0 0 0
17 16 16 15 12 10 10 9 7 5 3 2 1 1 0 0 0 0 0 0 0 0 0 0 0 0 0 0 0 0 0 0 0 0 0 0 0 0 0 0 0 0 0
12 13 15 15 12 10 9 7 4 2 2 1 0 0 0 0 0 0 0 0 0 0 0 0 0 0 0 0 0 0 0 0 0 0 0 0 0 0 0 0 0 0 0
9 11 14 16 15 13 10 6 3 2 2 2 1 0 0 0 0 0 0 0 0 0 0 0 0 0 0 0 0 0 0 0 0 0 0 0 0 0 0 0 0 0 0
8 10 14 17 17 16 13 7 4 4 5 5 3 1 0 0 0 0 0 0 0 0 0 0 0 0 0 0 0 0 0 0 0 0 0 0 0 0 0 0 0 0 0
9 9 13 16 16 16 14 11 7 7 7 6 4 2 0 0 0 1 1 0 0 0 0 0 0 0 0 0 0 0 0 0 0 0 0 0 0 0 0 0 0 0 0
7 8 12 16 16 15 14 13 11 10 7 5 4 2 1 1 1 1 2 1 0 0 0 0 0 0 0 0 0 0 0 0 0 0 0 0 0 0 0 0 0 0 0
5 6 10 14 15 14 13 13 13 12 9 5 3 4 3 3 2 2 3 2 1 1 0 0 0 0 0 0 0 0 0 0 0 0 0 0 0 0 0 0 0 0 0
3 4 7 12 14 13 11 12 14 14 10 6 4 5 6 6 5 4 5 4 3 2 1 0 0 0 0 0 0 0 0 0 0 0 0 0 0 0 0 0 0 0 0
2 3 5 9 11 10 8 9 12 13 11 7 6 6 7 8 8 8 8 8 7 5 2 1 0 0 0 0 0 0 0 0 0 0 0 0 0 0 0 0 0 0 0
2 2 4 7 8 7 7 8 10 11 11 9 7 6 7 7 9 10 11 10 10 8 5 2 1 0 0 0 0 0 0 0 0 0 0 0 0 0 0 0 0 0 0
1 1 3 4 4 5 6 8 9 10 11 11 10 9 9 9 10 11 10 10 11 11 7 3 2 2 1 0 0 0 0 0 0 0 0 0 0 0 0 0 0 0 0
1 1 2 2 3 4 6 7 8 9 9 10 11 13 13 12 11 10 7 8 11 11 9 7 5 4 2 0 0 0 0 0 0 0 0 0 0 0 0 0 0 0 0
2 2 3 3 3 5 6 6 7 8 7 6 8 11 12 12 11 8 6 6 8 10 9 9 8 5 3 1 0 0 0 0 0 0 0 0 0 0 0 0 0 0 0
5 4 4 4 3 4 5 6 6 6 4 4 4 7 9 10 9 7 5 5 5 6 6 7 7 6 4 1 0 0 0 0 0 0 0 0 0 0 0 0 0 0 0
5 4 4 3 1 2 3 3 3 3 3 3 3 4 6 7 6 4 3 3 2 2 2 3 4 4 3 1 0 0 0 0 0 0 0 0 0 0 0 0 0 0 0
3 2 1 1 0 0 1 1 1 1 1 1 1 2 2 2 2 1 1 1 1 0 0 1 1 2 1 0 0 0 0 0 0 0 0 0 0 0 0 0 0 0 0
1 0 0 0 0 0 0 0 0 0 0 0 0 0 0 0 0 0 0 0 0 0 0 0 0 0 0 0 0 0 0 0 0 0 0 0 0 0 0 0 0 0 0
0 0 0 0 0 0 0 0 0 0 0 0 0 0 0 0 0 0 0 0 0 0 0 0 0 0 0 0 0 0 0 0 0 0 0 0 0 0 0 0 0 0 0
0 0 0 0 0 0 0 0 0 0 0 0 0 0 0 0 0 0 0 0 0 0 0 0 0 0 0 0 0 0 0 0 0 0 0 0 0 0 0 0 0 0 0
0 0 0 0 0 0 0 0 0 0 0 0 0 0 0 0 0 0 0 0 0 0 0 0 0 0 0 0 0 0 0 0 0 0 0 0 0 0 0 0 0 0 0
0 0 0 0 0 0 0 0 0 0 0 0 0 0 0 0 0 0 0 0 0 0 0 0 0 0 0 0 0 0 0 0 0 0 0 0 0 0 0 0 0 0 0

GEFSMW_con_probscp_102.txt.gz
Probability
8 9 9 10 9 7 5 4 4 3 3 2 2 2 2 1 0 0 0 0 0 0 0 0 0 0 0 0 0 0 0 0 0 0 0 0 0 0 0 0 0 0 0
6 7 8 10 9 7 5 4 4 4 3 2 1 2 2 1 0 0 0 0 0 0 0 0 0 0 0 0 0 0 0 0 0 0 0 0 0 0 0 0 0 0 0
5 5 7 8 8 6 6 6 5 4 3 2 1 1 1 1 0 0 0 0 0 0 0 0 0 0 0 0 0 0 0 0 0 0 0 0 0 0 0 0 0 0 0
6 6 6 5 4 5 6 7 5 4 3 3 2 1 0 0 0 0 0 0 0 0 0 0 0 0 0 0 0 0 0 0 0 0 0 0 0 0 0 0 0 0 0
6 5 4 2 1 2 4 6 5 4 3 3 3 1 0 0 0 0 0 0 0 0 0 0 0 0 0 0 0 0 0 0 0 0 0 0 0 0 0 0 0 0 0
5 5 4 2 1 2 3 4 4 3 2 3 3 2 1 0 0 0 0 0 0 0 0 0 0 0 0 0 0 0 0 0 0 0 0 0 0 0 0 0 0 0 0
4 5 5 4 4 5 3 3 3 1 1 1 2 2 1 0 0 0 0 0 0 0 0 0 0 0 0 0 0 0 0 0 0 0 0 0 0 0 0 0 0 0 0
2 4 6 7 7 7 5 3 3 1 0 0 1 1 0 0 0 0 0 0 0 0 0 0 0 0 0 0 0 0 0 0 0 0 0 0 0 0 0 0 0 0 0
1 2 5 7 7 6 6 5 5 3 1 0 0 0 0 0 0 0 0 0 0 0 0 0 0 0 0 0 0 0 0 0 0 0 0 0 0 0 0 0 0 0 0
0 1 3 5 6 6 7 7 6 5 3 2 1 0 0 0 0 0 0 0 0 0 0 0 0 0 0 0 0 0 0 0 0 0 0 0 0 0 0 0 0 0 0
0 0 1 3 4 6 8 9 8 6 5 4 3 2 1 1 1 0 0 0 0 0 0 0 0 0 0 0 0 0 0 0 0 0 0 0 0 0 0 0 0 0 0
0 0 1 2 4 7 9 10 9 7 6 6 5 5 4 3 1 0 0 0 0 0 0 0 0 0 0 0 0 0 0 0 0 0 0 0 0 0 0 0 0 0 0
0 0 2 3 4 6 8 8 9 8 6 5 5 5 5 3 2 1 0 0 0 0 0 0 0 0 0 0 0 0 0 0 0 0 0 0 0 0 0 0 0 0 0
0 0 1 1 2 3 5 6 8 8 6 4 4 4 3 2 1 1 0 0 0 0 0 0 0 0 0 0 0 0 0 0 0 0 0 0 0 0 0 0 0 0 0
0 0 0 0 1 3 4 5 6 7 5 4 3 2 1 0 1 1 0 0 0 0 0 0 0 0 0 0 0 0 0 0 0 0 0 0 0 0 0 0 0 0 0
0 0 0 1 2 2 3 3 5 5 4 3 2 1 0 0 0 1 1 1 0 0 0 0 0 0 0 0 0 0 0 0 0 0 0 0 0 0 0 0 0 0 0
1 1 1 2 3 2 2 2 4 6 4 1 0 0 0 0 0 1 2 1 0 0 0 0 0 0 0 0 0 0 0 0 0 0 0 0 0 0 0 0 0 0 0
2 1 1 2 3 3 3 4 5 6 3 1 0 0 0 0 0 1 1 1 0 0 0 0 0 0 0 0 0 0 0 0 0 0 0 0 0 0 0 0 0 0 0
1 1 0 1 2 3 4 5 6 5 2 0 0 0 0 0 0 0 0 0 0 0 0 0 0 0 0 0 0 0 0 0 0 0 0 0 0 0 0 0 0 0 0
0 0 0 0 1 2 4 5 5 4 2 0 0 0 0 0 0 0 0 0 0 0 0 0 0 0 0 0 0 0 0 0 0 0 0 0 0 0 0 0 0 0 0
0 0 0 0 0 1 2 3 2 1 1 0 0 0 0 0 0 0 0 0 0 0 0 0 0 0 0 0 0 0 0 0 0 0 0 0 0 0 0 0 0 0 0
0 0 0 0 0 0 1 1 0 0 0 0 0 0 0 0 0 0 0 0 0 0 0 0 0 0 0 0 0 0 0 0 0 0 0 0 0 0 0 0 0 0 0
0 0 0 0 0 0 0 0 0 0 0 0 0 0 0 0 0 0 0 0 0 0 0 0 0 0 0 0 0 0 0 0 0 0 0 0 0 0 0 0 0 0 0
0 0 0 0 0 0 0 0 0 0 0 0 0 0 0 0 0 0 0 0 0 0 0 0 0 0 0 0 0 0 0 0 0 0 0 0 0 0 0 0 0 0 0
0 0 0 0 0 0 0 0 0 0 0 0 0 0 0 0 0 0 0 0 0 0 0 0 0 0 0 0 0 0 0 0 0 0 0 0 0 0 0 0 0 0 0
0 0 0 0 0 0 0 0 0 0 0 0 0 0 0 0 0 0 0 0 0 0 0 0 0 0 0 0 0 0 0 0 0 0 0 0 0 0 0 0 0 0 0

GEFSMW_con_probscp_108.txt.gz
Probability
9 12 15 16 14 12 12 12 14 18 22 24 23 20 14 8 4 1 1 3 3 2 2 2 1 0 0 0 0 0 0 0 0 0 0 0 0 0 0 0 0 0 0
10 12 14 15 13 12 11 12 15 18 19 20 21 20 16 10 5 2 2 3 3 3 3 3 2 1 0 0 0 0 0 0 0 0 0 0 0 0 0 0 0 0 0
12 12 12 12 11 11 11 10 14 16 15 16 18 17 15 10 5 3 3 3 3 3 3 3 2 1 0 0 0 0 0 0 0 0 0 0 0 0 0 0 0 0 0
12 11 8 6 8 10 10 10 12 14 13 13 13 11 9 7 5 4 2 2 3 3 3 3 3 1 0 0 0 0 0 0 0 0 0 0 0 0 0 0 0 0 0
9 8 4 3 5 7 8 9 11 12 11 11 10 9 6 5 6 5 3 2 1 2 3 3 3 2 1 0 0 0 0 0 0 0 0 0 0 0 0 0 0 0 0
5 5 4 3 4 4 5 6 9 11 11 11 9 7 6 7 7 6 4 2 1 1 3 3 3 3 1 1 0 0 0 0 0 0 0 0 0 0 0 0 0 0 0
3 4 4 4 4 3 2 3 7 10 12 12 10 7 7 8 8 5 3 2 1 1 2 3 3 3 2 2 1 0 0 0 0 0 0 0 0 0 0 0 0 0 0
2 3 3 3 3 3 1 2 6 9 11 13 13 10 10 9 8 4 2 1 1 0 1 2 3 3 3 2 2 1 0 0 0 0 0 0 0 0 0 0 0 0 0
0 1 1 3 4 3 2 4 7 9 10 12 12 12 12 10 8 4 2 2 2 1 0 1 3 3 3 3 2 1 0 0 0 0 0 0 0 0 0 0 0 0 0
0 1 2 3 4 3 3 5 8 10 11 11 11 11 12 11 8 5 4 4 4 2 1 2 3 3 3 4 3 2 1 1 1 0 0 0 0 0 0 0 0 0 0
1 2 3 5 5 4 4 5 8 10 11 10 10 11 11 10 7 5 4 6 6 4 3 4 4 3 4 5 6 4 3 3 2 1 0 0 0 0 0 0 0 0 0
3 4 5 6 7 5 5 6 7 8 9 10 11 11 9 9 8 6 4 6 7 6 6 6 5 4 4 5 7 7 6 5 4 3 1 0 1 1 1 1 0 0 0
5 5 6 8 9 9 8 7 7 7 9 12 14 13 10 10 10 7 4 5 8 9 8 7 6 6 5 6 7 8 8 8 8 6 4 4 6 7 6 5 4 3 1
7 7 8 10 11 11 11 10 8 8 11 14 17 17 15 13 11 8 5 6 8 9 8 7 7 7 7 6 7 9 10 12 12 10 8 9 11 12 11 10 10 8 6
8 9 10 11 11 12 13 13 11 11 12 14 18 19 18 17 15 12 10 11 11 9 7 6 7 7 7 5 5 8 12 14 15 14 13 13 12 10 8 8 8 9 10
11 12 14 15 15 15 16 16 17 16 15 15 18 19 20 20 18 17 17 17 15 10 7 6 7 6 4 2 2 5 11 16 18 18 17 14 10 6 4 3 2 5 8
17 18 19 20 20 19 18 20 22 21 19 19 19 20 21 20 18 18 18 17 14 11 8 8 7 5 3 1 0 2 8 15 18 18 16 13 9 6 5 3 3 4 5
25 25 25 24 23 21 20 21 22 21 21 21 21 20 19 16 14 13 12 12 12 12 12 10 8 6 3 1 0 1 5 10 12 12 11 10 8 6 5 5 6 7 8
30 30 29 27 25 24 22 19 18 17 17 17 17 16 15 12 10 8 7 8 10 12 12 9 8 6 3 1 0 1 4 5 5 5 5 5 4 3 3 4 6 9 10
28 28 27 27 26 25 21 17 14 13 11 11 10 9 9 8 7 6 5 6 8 8 7 5 5 4 3 1 0 1 2 2 2 2 2 2 1 1 1 2 4 6 8
21 21 21 22 22 19 15 13 11 9 8 7 6 5 6 6 6 6 5 5 5 4 3 2 1 1 1 0 0 0 0 1 1 1 1 0 0 0 0 1 2 3 4
15 14 13 15 15 13 10 8 7 6 6 5 5 4 4 5 5 5 4 4 3 3 2 1 0 0 0 0 0 0 0 0 0 0 0 0 0 0 0 0 0 1 1
8 7 6 7 7 6 5 4 3 3 3 3 3 2 2 3 3 2 2 1 1 1 1 0 0 0 0 0 0 0 0 0 0 0 0 0 0 0 0 0 0 0 0
2 2 2 2 2 2 1 1 1 1 1 1 1 0 0 1 1 0 0 0 0 0 0 0 0 0 0 0 0 0 0 0 0 0 0 0 0 0 0 0 0 0 0
0 0 0 1 1 0 0 0 0 0 0 0 0 0 0 0 0 0 0 0 0 0 0 0 0 0 0 0 0 0 0 0 0 0 0 0 0 0 0 0 0 0 0
0 0 0 1 1 0 0 0 0 0 0 0 0 0 0 0 0 0 0 0 0 0 0 0 0 0 0 0 0 0 0 0 0 0 0 0 0 0 0 0 0 0 0

GEFSMW_con_probscp_114.txt.gz
Probability
57 56 53 48 46 48 48 43 41 37 33 31 31 30 26 24 22 20 19 14 9 7 7 6 5 2 1 0 0 0 0 0 0 0 0 0 0 0 0 0 0 0 0
57 56 52 46 45 47 45 40 37 34 30 28 29 29 27 24 21 20 19 14 10 8 7 6 6 4 3 1 0 0 0 0 0 0 0 0 0 0 0 0 0 0 0
54 54 49 43 43 44 40 34 33 31 26 23 23 25 24 21 20 20 18 14 10 8 7 6 6 6 5 3 1 0 0 0 0 0 0 0 0 0 0 0 0 0 0
49 50 46 39 37 36 31 29 29 27 23 18 17 18 20 19 20 20 17 12 9 7 6 5 5 6 6 5 2 1 1 0 0 0 0 0 0 0 0 0 0 0 0
42 44 41 35 29 25 24 25 26 23 20 17 16 17 18 18 19 18 16 12 8 5 3 3 3 5 6 5 3 2 2 1 0 0 0 0 1 0 0 0 0 0 0
35 37 37 33 26 21 18 20 22 21 19 18 16 15 16 17 17 17 15 10 6 3 2 2 4 4 4 4 2 1 2 2 1 1 1 1 1 0 0 0 0 0 0
29 31 33 31 27 22 18 17 19 21 19 16 14 14 16 16 16 15 12 7 4 3 4 5 6 4 3 2 1 1 2 3 2 2 2 2 2 1 0 0 0 0 0
26 26 28 31 29 24 20 18 19 20 18 14 14 18 18 16 15 14 9 5 3 4 6 8 8 6 4 3 1 1 2 3 3 2 3 3 3 1 0 0 0 0 0
22 21 23 28 29 26 24 22 21 20 15 13 16 21 21 18 15 13 10 8 7 7 10 11 10 7 5 4 3 2 2 3 3 3 3 4 3 3 1 0 0 0 0
15 16 18 22 24 26 25 24 24 22 16 12 14 19 21 20 16 16 16 16 16 15 14 13 10 7 5 5 4 3 3 4 5 4 4 5 5 4 3 1 1 1 1
14 15 15 16 19 22 23 23 23 22 18 15 13 15 19 21 20 21 23 25 26 23 18 14 11 7 6 6 7 6 5 6 7 7 6 5 5 5 4 2 1 2 2
19 19 17 16 17 20 21 21 21 21 19 18 17 16 18 22 24 25 28 31 31 27 20 15 13 9 6 8 10 9 8 8 8 8 7 6 6 6 5 3 2 2 2
27 25 23 22 22 23 22 21 21 21 20 20 21 21 22 25 26 26 27 28 28 25 20 14 13 9 5 7 9 9 9 9 8 8 9 10 11 11 9 6 5 6 5
34 33 31 28 28 29 27 24 23 23 23 23 24 24 26 26 25 25 24 24 22 20 17 14 13 10 6 5 6 8 8 7 7 7 9 12 15 14 11 9 11 12 13
37 38 36 33 31 32 32 30 27 27 27 26 24 24 25 24 23 22 22 21 19 15 14 14 13 10 7 3 4 6 7 7 7 7 8 9 10 9 8 8 11 13 14
40 42 40 36 33 32 33 33 32 31 30 27 24 23 24 23 21 19 20 21 19 15 12 11 10 8 4 2 2 3 7 9 9 8 8 7 4 3 2 3 4 6 6
45 47 45 41 36 33 33 33 31 30 28 26 23 22 23 22 20 18 18 19 18 15 11 8 6 4 1 0 0 1 5 8 9 8 9 7 3 2 2 1 1 1 2
51 51 50 46 40 36 35 33 28 25 24 22 21 21 20 19 18 17 16 16 14 12 10 6 4 3 1 0 0 1 3 6 6 5 5 5 4 2 2 2 2 2 2
52 52 51 48 44 40 38 34 27 22 20 18 18 19 19 18 16 15 13 11 9 8 7 5 4 3 1 0 0 1 3 4 4 3 3 3 3 1 1 1 2 3 3
45 46 46 45 44 41 37 32 27 22 18 16 15 16 16 15 14 12 9 6 5 4 4 5 4 2 1 0 0 1 2 3 2 2 1 1 1 0 0 0 1 2 2
38 38 38 38 38 36 34 29 25 22 19 16 14 13 13 11 10 8 7 5 3 3 3 3 3 1 0 0 0 0 1 1 1 1 1 0 0 0 0 0 0 1 1
33 33 33 33 32 31 29 26 22 19 17 16 13 11 9 8 7 6 5 4 4 3 3 2 1 0 0 0 0 0 0 0 0 0 0 0 0 0 0 0 0 0 0
31 31 31 31 29 27 25 23 20 17 15 13 10 7 6 5 5 4 2 2 3 3 3 2 1 0 0 0 0 0 0 0 0 0 0 0 0 0 0 0 0 0 0
24 25 25 24 22 20 19 18 16 13 11 8 5 3 2 2 1 1 0 0 1 2 2 2 1 0 0 0 0 0 0 0 0 0 0 0 0 0 0 0 0 0 0
12 13 12 11 10 10 10 10 9 7 5 3 1 1 0 0 0 0 0 0 0 1 1 1 0 0 0 0 0 0 0 0 0 0 0 0 0 0 0 0 0 0 0
6 6 4 3 2 3 4 4 4 4 3 1 0 0 0 0 0 0 0 0 0 0 0 0 0 0 0 0 0 0 0 0 0 0 0 0 0 0 0 0 0 0 0

GEFSMW_con_probscp_120.txt.gz
Probability
31 35 36 32 27 24 21 20 17 16 16 13 10 9 11 12 8 4 2 1 0 0 0 0 0 0 0 0 0 0 0 0 0 0 0 0 0 0 0 0 0 0 0
32 32 33 31 27 25 22 19 17 15 14 11 8 7 10 11 7 3 1 0 0 0 0 0 0 0 0 0 0 0 0 0 0 0 0 0 0 0 0 0 0 0 0
29 28 27 26 25 25 22 18 15 13 11 10 7 7 8 7 4 1 0 0 1 1 1 0 0 0 0 0 0 0 0 0 0 0 0 0 0 0 0 0 0 0 0
22 22 22 22 22 23 21 17 13 11 9 8 7 7 6 4 1 0 0 0 1 2 1 0 0 0 0 0 0 0 0 0 0 0 0 0 0 0 0 0 0 0 0
17 16 16 17 17 18 18 16 12 9 7 6 6 6 5 3 1 0 0 0 1 1 1 0 0 0 0 0 0 0 0 0 0 0 0 0 0 0 0 0 0 0 0
14 12 10 11 13 14 15 14 11 7 5 4 5 4 4 3 2 0 0 0 0 0 0 0 0 0 0 0 0 0 0 0 0 0 0 0 0 0 0 0 0 0 0
11 9 8 8 9 11 12 11 9 6 4 3 3 3 3 3 2 0 0 0 0 0 0 0 0 0 0 0 0 0 0 0 0 0 0 0 0 0 0 0 0 0 0
7 7 7 6 7 9 10 9 7 5 3 3 2 2 3 3 2 1 0 0 0 0 0 0 0 0 0 0 0 0 0 0 0 0 0 0 0 0 0 0 0 0 0
3 3 3 4 5 6 7 7 5 3 3 3 2 2 1 2 2 1 0 0 0 0 0 0 0 0 0 0 0 0 0 0 0 0 0 0 0 0 0 0 0 0 0
2 2 2 3 4 6 6 6 5 3 3 3 3 2 1 1 1 0 0 0 0 0 0 0 0 0 0 0 0 0 0 0 0 0 0 0 0 0 0 0 0 0 0
5 5 5 5 6 6 7 7 5 4 3 3 3 3 3 2 1 1 0 0 0 0 0 0 0 0 0 0 0 0 0 0 0 0 0 0 0 0 0 0 0 0 0
10 9 8 8 7 8 8 8 7 5 3 3 4 4 4 3 3 2 1 0 0 0 0 0 0 0 0 0 0 0 0 0 0 0 0 0 0 0 0 0 0 0 0
13 11 9 9 9 9 9 10 10 7 5 4 5 7 7 5 4 2 1 0 0 0 0 0 0 0 0 0 0 0 0 0 0 0 0 0 0 0 0 0 0 0 0
12 10 8 8 8 9 9 9 9 9 9 8 8 9 10 9 5 2 1 0 0 0 0 0 0 0 0 0 0 0 0 0 0 0 0 0 0 0 0 0 0 0 0
13 10 7 6 6 6 6 6 7 9 13 14 12 11 11 9 6 3 1 0 0 0 0 0 0 0 0 0 0 0 0 0 0 0 0 0 0 0 0 0 0 0 0
16 12 7 4 3 4 4 4 6 8 12 14 13 10 9 6 4 3 1 1 1 1 0 0 0 0 0 0 0 0 0 0 0 0 0 0 0 0 0 0 0 0 0
17 13 8 5 3 3 3 4 5 8 10 10 9 8 6 4 3 2 1 2 2 1 0 0 0 0 0 0 0 0 0 0 0 0 0 0 0 0 0 0 0 0 0
11 12 11 8 5 4 4 4 6 8 9 8 7 6 5 4 4 3 2 2 1 1 0 0 0 0 0 0 0 0 0 0 0 0 0 0 0 0 0 0 0 0 0
9 10 12 13 12 8 7 7 8 9 9 8 8 7 6 6 5 5 3 1 0 0 0 0 0 0 0 0 0 0 0 0 0 0 0 0 0 0 0 0 0 0 0
9 11 14 17 17 14 12 11 10 10 10 9 9 8 7 5 4 3 2 1 0 0 0 0 0 0 0 0 0 0 0 0 0 0 0 0 0 0 0 0 0 0 0
10 14 17 18 18 16 14 12 10 9 9 8 6 5 3 2 1 1 1 0 0 0 0 0 0 0 0 0 0 0 0 0 0 0 0 0 0 0 0 0 0 0 0
13 15 16 15 14 14 14 13 9 7 6 4 2 1 1 0 0 0 0 0 0 0 0 0 0 0 0 0 0 0 0 0 0 0 0 0 0 0 0 0 0 0 0
15 15 14 12 10 10 11 11 7 4 3 1 0 0 0 0 0 0 0 0 0 0 0 0 0 0 0 0 0 0 0 0 0 0 0 0 0 0 0 0 0 0 0
12 12 12 9 6 5 6 6 4 1 1 0 0 0 0 0 0 0 0 0 0 0 0 0 0 0 0 0 0 0 0 0 0 0 0 0 0 0 0 0 0 0 0
6 7 7 6 3 2 1 1 1 0 0 0 0 0 0 0 0 0 0 0 0 0 0 0 0 0 0 0 0 0 0 0 0 0 0 0 0 0 0 0 0 0 0
2 3 3 2 1 0 0 0 0 0 0 0 0 0 0 0 0 0 0 0 0 0 0 0 0 0 0 0 0 0 0 0 0 0 0 0 0 0 0 0 0 0 0

GEFSMW_con_probscp_126.txt.gz
Probability
18 20 22 22 19 15 10 6 3 2 1 1 0 0 1 1 1 1 0 0 0 0 0 0 0 0 0 0 0 0 0 0 0 0 0 0 0 0 0 0 0 0 0
22 21 20 17 14 12 9 6 3 3 3 3 1 1 1 2 2 2 1 0 0 0 0 0 0 0 0 0 0 0 0 0 0 0 0 0 0 0 0 0 0 0 0
23 20 15 11 8 9 8 6 4 4 5 5 3 2 1 2 2 2 1 0 0 0 0 0 0 0 0 0 0 0 0 0 0 0 0 0 0 0 0 0 0 0 0
17 14 11 7 5 5 5 4 4 4 5 5 4 3 2 2 2 2 1 0 0 0 0 0 0 0 0 0 0 0 0 0 0 0 0 0 0 0 0 0 0 0 0
9 8 8 6 3 3 2 2 3 4 4 4 4 3 3 2 1 1 1 0 0 0 0 0 0 0 0 0 0 0 0 0 0 0 0 0 0 0 0 0 0 0 0
2 3 4 4 3 2 1 1 2 3 3 3 3 3 3 2 1 1 0 0 0 0 0 0 0 0 0 0 0 0 0 0 0 0 0 0 0 0 0 0 0 0 0
0 1 2 3 3 2 1 1 2 3 3 3 3 3 3 3 2 2 1 1 0 0 0 0 0 0 0 0 0 0 0 0 0 0 0 0 0 0 0 0 0 0 0
0 1 2 3 3 1 1 1 2 2 3 3 3 2 2 2 3 3 3 2 1 0 0 0 0 0 0 0 0 0 0 0 0 0 0 0 0 0 0 0 0 0 0
0 0 1 2 2 1 0 1 1 1 2 2 2 1 1 1 1 2 3 3 2 1 0 0 0 0 0 0 0 0 0 0 0 0 0 0 0 0 0 0 0 0 0
0 0 0 1 1 0 0 1 1 1 2 3 2 1 0 0 0 1 1 2 2 1 0 0 0 0 0 0 0 0 0 0 0 0 0 0 0 0 0 0 0 0 0
0 1 1 0 0 0 0 1 2 3 3 3 2 1 0 0 0 0 0 1 1 0 0 0 0 0 0 0 0 0 0 0 0 0 0 0 0 0 0 0 0 0 0
1 2 1 0 0 0 0 1 3 3 3 3 2 1 0 0 0 0 0 0 0 0 0 0 0 0 0 0 0 0 0 0 0 0 0 0 0 0 0 0 0 0 0
2 2 2 1 0 0 1 2 3 3 3 3 2 1 0 0 0 1 1 0 0 0 0 0 0 0 0 0 0 0 0 0 0 0 0 0 0 0 0 0 0 0 0
3 3 2 1 1 1 1 1 3 3 3 3 2 1 0 0 0 1 1 0 0 0 0 0 0 0 0 0 0 0 0 0 0 0 0 0 0 0 0 0 0 0 0
2 2 1 1 0 1 1 1 1 2 3 4 3 2 1 0 0 0 0 0 0 0 0 0 0 0 0 0 0 0 0 0 0 0 0 0 0 0 0 0 0 0 0
1 1 0 0 0 0 0 0 0 1 3 5 5 4 3 1 0 0 0 1 0 0 0 0 0 0 0 0 0 0 0 0 0 0 0 0 0 0 0 0 0 0 0
0 0 0 0 0 0 0 0 0 1 3 5 6 6 5 3 1 0 0 0 0 0 0 0 0 0 0 0 0 0 0 0 0 0 0 0 0 0 0 0 0 0 0
0 0 0 0 0 0 0 0 0 1 1 3 6 6 6 4 2 0 0 0 0 0 0 0 0 0 0 0 0 0 0 0 0 0 0 0 0 0 0 0 0 0 0
0 0 0 0 0 0 0 0 0 0 1 3 5 6 5 4 2 0 0 0 0 0 0 0 0 0 0 0 0 0 0 0 0 0 0 0 0 0 0 0 0 0 0
1 1 1 1 1 1 0 0 0 0 1 4 5 5 4 3 2 0 0 0 0 0 0 0 0 0 0 0 0 0 0 0 0 0 0 0 0 0 0 0 0 0 0
3 3 2 2 2 1 0 1 1 1 2 4 5 5 4 3 1 0 0 0 0 0 0 0 0 0 0 0 0 0 0 0 0 0 0 0 0 0 0 0 0 0 0
5 4 3 2 2 1 1 2 3 3 4 4 4 3 3 2 1 0 0 0 0 0 0 0 0 0 0 0 0 0 0 0 0 0 0 0 0 0 0 0 0 0 0
4 3 2 1 1 1 2 4 4 4 4 4 2 1 1 1 0 0 0 0 0 0 0 0 0 0 0 0 0 0 0 0 0 0 0 0 0 0 0 0 0 0 0
3 3 2 1 1 1 1 3 3 3 2 2 1 0 0 0 0 0 0 0 0 0 0 0 0 0 0 0 0 0 0 0 0 0 0 0 0 0 0 0 0 0 0
1 2 3 3 2 1 0 1 1 1 1 1 0 0 0 0 0 0 0 0 0 0 0 0 0 0 0 0 0 0 0 0 0 0 0 0 0 0 0 0 0 0 0
0 1 3 3 2 1 0 0 0 0 0 0 0 0 0 0 0 0 0 0 0 0 0 0 0 0 0 0 0 0 0 0 0 0 0 0 0 0 0 0 0 0 0

GEFSMW_con_probscp_132.txt.gz
Probability
31 30 30 29 27 26 25 23 21 19 14 10 11 12 9 5 2 1 1 2 2 1 3 4 5 4 1 0 0 0 0 0 0 0 0 0 0 0 0 0 0 0 0
29 29 29 26 24 24 23 19 16 14 12 9 11 14 12 6 2 1 2 3 3 2 2 3 4 3 1 1 0 0 0 0 0 0 0 0 0 0 0 0 0 0 0
24 26 26 21 19 19 17 13 10 8 8 8 9 10 9 5 2 2 3 3 3 2 1 2 2 2 2 2 1 0 0 0 0 1 0 0 0 0 0 0 0 0 0
18 20 20 16 14 14 12 9 7 6 6 6 5 5 4 3 2 3 4 3 3 3 1 1 0 2 4 3 1 0 0 0 0 0 0 0 0 0 0 0 0 0 0
11 13 12 10 10 10 9 7 6 6 6 5 4 3 3 2 2 4 4 4 5 4 3 2 2 2 3 2 1 1 1 1 0 0 0 0 0 0 0 0 0 0 0
5 6 6 6 7 8 8 7 7 6 5 4 3 2 1 1 2 3 4 6 7 6 6 5 4 2 1 1 1 2 3 2 1 1 1 1 0 0 0 0 0 0 0
1 2 3 4 6 6 6 7 7 6 6 4 3 1 0 0 1 2 4 6 8 8 7 6 5 2 0 0 1 3 3 3 2 1 1 1 0 0 0 0 0 0 0
1 2 3 4 5 5 4 5 6 7 7 5 3 1 1 1 2 3 3 5 7 7 7 6 5 3 1 1 2 3 3 3 3 1 1 1 1 1 1 1 1 1 0
4 4 4 3 3 3 2 3 4 5 5 4 3 3 2 3 3 3 4 5 6 7 6 6 5 4 4 3 3 2 2 3 3 2 2 1 1 1 1 2 2 2 1
6 5 4 3 3 3 3 3 3 3 3 3 2 2 3 3 4 5 6 7 7 7 6 5 5 5 5 4 4 2 1 2 3 3 3 2 2 2 2 2 3 2 2
6 6 5 5 5 6 6 5 4 3 2 2 2 1 2 4 6 6 8 11 10 7 4 4 4 5 5 5 3 1 0 1 2 3 3 3 3 3 3 3 2 2 2
6 6 5 5 5 6 6 6 5 3 3 3 3 3 3 4 6 6 8 10 10 7 4 3 3 4 5 4 2 0 0 0 1 1 2 3 3 3 3 2 2 1 1
8 8 7 6 6 5 6 5 3 3 4 6 7 6 5 5 5 5 5 6 6 6 5 3 3 3 4 3 2 1 1 0 0 0 1 2 2 2 1 1 1 1 0
11 11 12 12 10 7 6 6 5 7 8 9 10 9 7 6 6 5 4 4 5 6 6 5 3 4 4 4 4 3 2 1 1 0 0 1 2 1 1 1 2 2 1
14 14 16 17 13 9 7 7 9 11 11 11 12 11 9 8 8 8 7 6 7 8 8 7 6 6 5 4 4 5 4 3 2 1 1 1 1 0 0 1 3 3 2
18 17 17 18 15 10 7 7 8 9 9 9 10 9 8 8 8 8 8 8 8 9 10 10 9 9 6 3 2 4 5 4 4 3 2 0 0 0 0 0 1 1 1
23 21 20 19 15 10 6 5 5 5 5 6 6 5 5 5 6 7 7 9 10 11 11 11 11 10 6 1 0 2 4 5 4 3 2 1 0 0 0 0 0 0 0
26 24 23 22 17 9 4 3 3 4 5 6 6 6 6 6 6 7 9 10 12 12 11 10 9 8 5 1 0 1 2 3 3 2 2 2 1 0 0 0 0 0 0
25 25 25 24 20 12 6 4 4 7 9 11 11 10 10 10 8 8 8 9 10 11 10 8 6 6 4 1 0 0 1 2 2 2 2 2 1 0 0 0 0 0 0
24 25 25 23 20 16 11 9 9 12 15 16 15 13 12 12 10 7 6 6 8 8 7 6 5 5 4 1 0 0 1 1 1 1 1 1 0 0 0 0 0 0 0
22 23 23 21 19 18 18 17 15 15 17 16 13 12 11 10 8 6 5 5 6 6 5 4 3 3 2 1 0 0 0 0 0 0 0 0 0 0 0 0 0 0 0
18 20 22 22 21 22 22 20 17 16 14 12 9 8 8 8 7 5 5 5 4 3 1 1 1 1 1 0 0 0 0 0 0 0 0 0 0 0 0 0 0 0 0
16 19 22 23 24 23 22 20 17 14 11 9 7 6 6 7 6 5 5 4 3 1 0 0 0 0 0 0 0 0 0 0 0 0 0 0 0 0 0 0 0 0 0
15 18 20 20 20 19 18 17 13 11 9 7 6 5 5 5 4 4 4 3 1 0 0 0 0 0 0 0 0 0 0 0 0 0 0 0 0 0 0 0 0 0 0
12 14 15 14 12 10 10 9 7 7 8 7 5 4 3 3 2 1 1 1 0 0 0 0 0 0 0 0 0 0 0 0 0 0 0 0 0 0 0 0 0 0 0
8 10 11 10 6 5 5 4 4 5 6 6 4 2 1 1 0 0 0 0 0 0 0 0 0 0 0 0 0 0 0 0 0 0 0 0 0 0 0 0 0 0 0

GEFSMW_con_probscp_138.txt.gz
Probability
65 64 60 58 56 52 48 45 39 32 26 25 29 28 20 13 12 12 14 12 7 6 8 8 7 6 4 4 4 5 4 4 3 3 2 2 2 1 0 0 0 0 0
64 63 59 55 52 47 44 40 34 30 27 27 27 25 18 13 12 15 15 12 8 5 6 9 7 6 6 6 7 8 7 5 4 3 2 1 1 0 0 0 0 0 0
63 60 55 51 45 39 37 36 33 30 29 27 24 21 17 13 13 16 15 13 9 5 6 9 8 7 7 10 12 13 10 7 6 5 3 1 0 0 0 0 0 0 0
57 55 50 45 39 33 32 35 36 33 29 25 21 19 16 13 14 15 13 13 11 7 7 9 9 9 10 11 13 13 12 9 6 5 3 1 0 0 0 0 0 0 0
52 49 44 40 35 32 32 36 38 36 29 23 20 16 13 11 12 12 11 10 11 8 7 10 12 12 14 13 13 13 12 8 5 3 1 0 0 0 0 0 0 0 0
46 42 38 36 34 33 33 36 38 36 30 23 17 12 9 8 9 9 8 8 9 8 8 10 15 17 17 16 16 15 12 7 4 2 1 0 0 0 0 0 0 0 0
37 34 32 33 34 33 33 34 36 33 27 19 13 9 7 7 7 7 7 7 7 7 8 11 16 17 16 16 17 16 11 7 5 4 2 1 0 0 0 0 0 0 0
26 25 26 28 29 29 29 31 34 29 20 13 9 8 8 7 7 6 6 6 6 7 10 14 16 15 12 12 15 14 10 7 5 4 4 2 1 0 1 1 1 0 0
19 20 21 22 22 24 27 30 32 27 17 10 8 7 7 7 7 6 5 5 6 8 11 16 17 15 12 12 14 12 10 9 5 3 4 3 2 1 2 2 2 1 1
17 20 21 18 18 21 26 29 29 24 18 13 9 7 6 6 6 5 6 8 9 12 14 15 15 16 15 15 14 11 9 10 7 3 2 4 3 3 4 4 3 3 3
21 24 23 19 17 21 25 26 25 21 18 16 14 13 12 9 7 7 9 11 14 17 18 15 14 15 15 15 12 9 8 9 7 3 2 3 4 5 6 5 4 6 6
25 28 28 23 21 23 25 25 24 22 20 18 19 20 19 15 12 10 11 14 17 18 19 17 15 14 14 14 12 8 8 9 7 4 3 2 3 6 7 5 5 6 8
32 34 35 33 30 29 29 27 25 23 21 20 21 22 20 17 15 12 12 13 14 15 16 16 14 12 13 14 13 11 10 10 9 8 7 4 5 7 7 5 5 5 5
42 43 45 45 41 38 35 31 26 24 22 22 22 21 19 16 14 11 11 11 11 12 13 14 13 11 11 12 12 12 11 11 11 10 7 5 5 6 6 5 5 4 2
50 51 54 55 50 45 41 35 30 27 25 23 21 19 18 16 12 9 8 9 11 12 12 13 11 9 8 8 9 10 11 12 10 8 5 3 2 2 2 2 3 2 1
57 59 61 59 55 50 45 40 34 30 26 23 19 17 16 14 11 9 8 9 12 12 11 10 9 8 6 4 4 6 9 10 9 6 4 2 0 0 0 0 0 0 0
65 65 63 59 56 52 47 42 36 29 25 22 19 17 15 12 11 10 10 13 15 14 12 9 9 8 6 2 1 3 4 6 6 6 4 2 1 0 0 0 0 0 0
65 65 62 57 54 51 47 43 37 29 23 20 18 17 15 14 13 12 13 15 16 16 14 12 11 10 6 2 0 1 1 2 4 4 4 2 1 0 0 0 0 0 0
58 59 57 54 54 52 50 44 37 29 23 20 17 17 17 17 17 15 14 14 14 14 13 12 12 10 6 2 0 0 0 1 2 3 2 1 0 0 0 0 0 0 0
54 53 52 53 57 56 51 44 36 29 24 22 20 18 18 18 16 15 13 12 10 9 8 8 9 8 5 1 0 0 0 1 1 1 1 0 0 0 0 0 0 0 0
52 50 48 51 55 54 49 44 38 30 26 25 22 18 16 13 11 10 10 8 7 5 5 5 6 5 3 1 0 0 1 1 0 0 0 0 0 0 0 0 0 0 0
43 42 43 46 50 49 46 43 38 32 28 25 21 17 13 9 7 7 6 5 4 3 3 4 4 2 1 0 0 0 0 0 0 0 0 0 0 0 0 0 0 0 0
32 32 35 40 43 42 41 37 32 29 26 23 19 15 11 7 6 5 4 3 3 3 2 2 2 1 0 0 0 0 0 0 0 0 0 0 0 0 0 0 0 0 0
27 29 32 34 34 31 29 26 23 22 21 18 15 12 9 6 5 4 3 2 2 1 1 1 1 0 0 0 0 0 0 0 0 0 0 0 0 0 0 0 0 0 0
25 27 28 26 23 19 18 18 17 17 16 13 10 7 5 3 2 1 1 1 1 0 0 0 0 0 0 0 0 0 0 0 0 0 0 0 0 0 0 0 0 0 0
23 25 24 21 18 15 14 15 16 15 12 10 7 4 2 1 0 0 0 0 0 0 0 0 0 0 0 0 0 0 0 0 0 0 0 0 0 0 0 0 0 0 0

GEFSMW_con_probscp_144.txt.gz
Probability
51 52 53 52 48 43 36 30 25 20 17 16 14 7 2 1 1 1 1 0 0 0 0 0 0 0 0 0 0 0 0 0 0 0 0 0 0 0 0 0 0 0 0
55 54 52 49 46 41 33 25 21 19 16 14 10 5 2 2 1 1 1 0 0 0 0 0 0 0 0 0 0 0 0 0 0 0 0 0 0 0 0 0 0 0 0
57 53 48 45 41 36 28 20 17 16 14 10 7 4 2 2 1 1 1 0 0 0 0 0 0 0 0 0 0 0 0 0 0 0 0 0 0 0 0 0 0 0 0
53 48 43 40 36 30 23 17 13 12 11 8 6 5 3 1 1 1 1 0 0 0 0 0 0 0 0 0 0 0 0 0 0 0 0 0 0 0 0 0 0 0 0
44 41 37 32 28 23 19 14 10 8 8 7 6 5 3 1 0 0 0 0 0 0 0 0 0 0 0 0 0 0 0 0 0 0 0 0 0 0 0 0 0 0 0
36 34 30 26 23 20 16 12 8 7 7 7 6 5 3 1 0 0 0 0 0 0 0 0 0 0 0 0 0 0 0 0 0 0 0 0 0 0 0 0 0 0 0
29 28 26 24 21 18 14 11 8 7 6 6 6 6 4 2 1 1 0 0 0 0 0 0 0 1 1 1 1 1 0 0 0 0 0 0 0 0 0 0 0 0 0
24 24 22 21 19 16 13 10 8 7 6 6 6 6 4 2 1 1 0 0 0 0 0 0 1 2 3 3 2 2 1 0 0 0 0 0 0 0 0 0 0 0 0
18 17 16 15 14 13 11 10 8 8 7 6 6 5 3 1 1 0 0 0 0 0 0 1 2 4 4 4 3 2 1 0 0 0 0 0 0 0 0 0 0 0 0
16 13 11 11 10 9 10 10 9 8 7 6 4 2 1 0 0 0 0 0 0 0 0 1 2 3 3 3 2 1 0 0 0 0 0 0 0 0 0 0 0 0 0
15 14 12 10 8 7 8 9 7 5 4 4 2 1 0 0 0 0 0 0 0 0 0 1 1 1 1 1 1 0 0 0 0 0 0 0 0 0 0 0 0 0 0
15 15 12 9 7 5 6 6 4 3 3 3 1 0 0 0 0 0 0 0 0 0 0 0 0 0 0 0 0 0 0 0 0 0 0 0 0 0 0 0 0 0 0
15 13 10 9 8 6 5 3 3 4 5 4 2 0 0 0 0 0 0 0 0 0 0 0 0 0 0 0 0 0 0 0 0 0 0 0 0 0 0 0 0 0 0
14 12 10 11 10 9 7 5 5 6 7 6 4 1 0 0 0 0 1 2 1 1 1 1 0 0 0 0 0 0 0 0 0 0 0 0 0 0 0 0 0 0 0
19 17 15 14 13 12 11 9 7 8 9 8 5 2 0 1 1 2 4 5 4 4 3 3 1 1 0 0 0 0 0 0 0 0 0 0 0 0 0 0 0 0 0
30 26 21 18 16 17 16 12 10 10 10 9 6 3 1 1 2 4 5 6 5 5 5 5 4 3 2 0 0 0 0 0 0 0 0 0 0 0 0 0 0 0 0
37 32 25 21 19 19 18 14 12 12 10 8 6 4 2 1 2 3 4 4 4 4 5 5 5 5 3 1 0 0 0 0 0 0 0 0 0 0 0 0 0 0 0
36 34 29 24 22 20 16 14 12 12 10 7 6 5 3 1 1 2 3 3 3 3 4 4 3 3 3 1 0 0 0 0 0 0 0 0 0 0 0 0 0 0 0
31 32 30 26 23 19 14 12 11 10 8 7 6 6 4 2 1 2 2 2 2 2 2 2 1 1 1 1 0 0 0 0 0 0 0 0 0 0 0 0 0 0 0
29 29 29 26 21 16 12 10 10 9 7 6 6 6 4 3 2 2 1 1 1 1 1 1 0 0 0 0 0 0 0 0 0 0 0 0 0 0 0 0 0 0 0
28 28 27 24 19 14 10 9 9 8 6 6 6 5 4 3 3 3 2 1 1 1 0 1 1 0 0 0 0 0 0 0 0 0 0 0 0 0 0 0 0 0 0
25 25 23 20 16 12 8 7 7 6 6 6 6 5 4 3 3 3 3 3 2 2 2 2 1 0 0 0 0 0 0 0 0 0 0 0 0 0 0 0 0 0 0
18 18 17 14 12 9 6 5 5 5 6 7 7 5 4 3 3 3 3 3 3 3 3 2 1 0 0 0 0 0 0 0 0 0 0 0 0 0 0 0 0 0 0
12 13 11 9 7 6 4 4 4 5 7 8 8 6 4 3 3 3 3 3 3 3 3 2 1 0 0 0 0 0 0 0 0 0 0 0 0 0 0 0 0 0 0
9 10 9 6 5 4 4 4 6 8 9 9 8 6 4 3 3 2 2 2 2 2 2 1 0 0 0 0 0 0 0 0 0 0 0 0 0 0 0 0 0 0 0
8 9 8 6 5 5 5 6 8 10 10 8 7 5 4 3 3 1 1 1 1 1 1 0 0 0 0 0 0 0 0 0 0 0 0 0 0 0 0 0 0 0 0

GEFSMW_con_probscp_150.txt.gz
Probability
20 19 17 17 14 11 10 8 5 4 5 5 3 1 2 3 2 1 0 0 1 0 0 0 0 0 0 0 0 0 0 0 0 0 0 0 0 0 0 0 0 0 0
24 22 20 18 16 12 10 9 6 5 6 5 3 1 2 3 2 1 0 1 1 1 0 0 0 0 0 0 0 0 0 0 0 0 0 0 0 0 0 0 0 0 0
25 24 21 18 14 11 9 8 7 7 6 5 3 1 1 2 1 0 0 1 1 1 0 0 0 0 0 0 0 0 0 0 0 0 0 0 0 0 0 0 0 0 0
23 21 19 13 9 8 7 6 7 7 6 5 4 2 1 1 0 0 0 0 0 0 0 0 0 0 0 0 0 0 0 0 0 0 0 0 0 0 0 0 0 0 0
20 18 14 10 7 6 5 4 5 5 5 4 4 3 3 2 1 0 0 0 0 0 0 0 0 0 0 0 0 0 0 0 0 0 0 0 0 0 0 0 0 0 0
17 15 11 8 8 7 5 4 4 4 4 3 3 4 5 5 3 1 0 0 0 0 0 0 0 0 0 0 0 0 0 0 0 0 0 0 0 0 0 0 0 0 0
14 12 9 7 7 8 7 6 6 6 5 4 3 4 6 6 4 1 0 0 0 0 0 0 0 0 0 0 0 0 0 0 0 0 0 0 0 0 0 0 0 0 0
13 10 5 4 5 6 8 8 7 6 6 5 4 5 6 6 4 1 0 0 0 0 0 0 0 0 0 0 0 0 0 0 0 0 0 0 0 0 0 0 0 0 0
11 8 3 1 2 3 6 7 5 4 4 5 5 5 5 5 3 1 0 0 0 0 0 0 0 0 0 0 0 0 0 0 0 0 0 0 0 0 0 0 0 0 0
10 6 2 1 1 2 3 4 2 1 2 3 4 4 4 4 3 1 0 0 0 0 0 0 0 0 0 0 0 0 0 0 0 0 0 0 0 0 0 0 0 0 0
6 3 1 0 0 1 2 2 1 0 1 1 2 2 2 2 2 1 0 0 0 0 0 0 0 0 0 0 0 0 0 0 0 0 0 0 0 0 0 0 0 0 0
2 1 1 1 2 2 3 2 1 0 0 0 1 1 0 1 1 0 0 0 0 0 0 0 0 0 0 0 0 0 0 0 0 0 0 0 0 0 0 0 0 0 0
1 2 2 3 3 3 3 2 1 0 0 0 0 0 0 0 0 0 0 0 0 0 0 0 0 0 0 0 0 0 0 0 0 0 0 0 0 0 0 0 0 0 0
3 3 3 3 3 3 2 1 0 0 0 0 0 0 0 0 0 0 0 0 0 0 0 0 0 0 0 0 0 0 0 0 0 0 0 0 0 0 0 0 0 0 0
4 3 3 3 2 1 1 0 0 0 0 0 0 0 0 0 0 0 0 0 0 0 0 0 0 0 0 0 0 0 0 0 0 0 0 0 0 0 0 0 0 0 0
7 6 5 3 2 2 1 1 1 1 1 1 1 0 1 1 0 0 0 0 0 0 0 0 0 0 1 1 0 0 0 0 0 0 0 0 0 0 0 0 0 0 0
12 11 7 3 2 3 3 3 3 2 2 2 2 1 1 1 0 0 0 1 0 0 0 0 0 1 1 1 0 0 0 0 0 0 0 0 0 0 0 0 0 0 0
15 14 9 4 3 5 5 4 4 3 3 3 3 2 1 1 0 0 0 0 0 0 0 0 0 1 1 1 0 0 0 0 0 0 0 0 0 0 0 0 0 0 0
13 11 7 5 6 7 7 5 4 4 4 3 3 3 1 1 1 1 0 0 0 0 0 0 0 0 0 0 0 0 0 0 0 0 0 0 0 0 0 0 0 0 0
7 8 7 7 9 9 7 5 4 4 3 3 3 3 3 2 2 2 1 0 0 0 0 0 0 0 0 0 0 0 0 0 0 0 0 0 0 0 0 0 0 0 0
4 5 6 7 8 9 7 5 4 3 3 3 3 3 3 3 3 3 2 1 1 1 1 0 0 0 0 0 0 0 0 0 0 0 0 0 0 0 0 0 0 0 0
4 4 6 8 7 7 7 5 3 3 3 4 4 3 2 2 3 3 3 3 2 2 2 1 0 0 0 0 0 0 0 0 0 0 0 0 0 0 0 0 0 0 0
5 6 8 8 6 5 5 5 4 3 4 4 4 3 2 2 3 3 3 3 3 3 3 2 1 1 0 0 0 0 0 0 0 0 0 0 0 0 0 0 0 0 0
8 9 10 9 7 5 4 4 3 3 3 4 4 3 3 3 3 3 3 3 3 3 3 3 3 2 1 0 0 0 0 0 0 0 0 0 0 0 0 0 0 0 0
9 10 10 8 6 4 3 3 3 3 3 3 3 4 4 4 3 3 3 2 2 2 3 3 3 3 2 0 0 0 0 0 0 0 0 0 0 0 0 0 0 0 0
8 8 8 6 4 4 3 3 3 3 3 3 3 4 5 4 3 3 2 1 1 1 2 3 3 3 1 0 0 0 0 0 0 0 0 0 0 0 0 0 0 0 0

GEFSMW_con_probscp_156.txt.gz
Probability
29 32 34 32 29 27 24 19 17 19 20 19 16 12 8 5 3 2 1 0 0 0 0 0 0 0 0 0 0 0 0 0 0 0 0 0 0 0 0 0 0 0 0
32 34 37 35 31 29 25 20 18 20 22 21 17 12 8 6 4 3 1 0 0 0 0 0 0 0 0 0 0 0 0 0 0 0 0 0 0 0 0 0 0 0 0
34 35 36 34 30 27 22 17 16 18 21 21 18 13 11 9 6 4 3 1 0 0 0 0 0 0 0 0 0 0 0 1 0 0 0 0 0 0 0 0 0 0 0
32 32 31 29 25 21 16 13 13 15 16 17 16 14 13 11 10 8 5 2 1 0 0 0 0 0 1 0 0 0 0 1 1 1 1 1 0 0 0 0 0 0 0
28 27 26 23 20 15 11 9 10 12 13 13 13 12 12 12 11 10 6 3 1 0 0 1 1 0 1 1 1 0 1 2 3 3 2 1 1 1 1 0 0 1 1
24 24 23 20 16 11 8 8 10 11 12 11 10 10 10 10 10 9 8 5 2 1 1 2 2 1 1 1 1 1 1 3 4 5 4 3 3 3 3 2 1 1 1
20 22 22 19 15 10 7 8 10 11 10 10 9 8 9 9 9 9 9 7 4 2 2 3 2 1 1 1 2 3 3 3 4 6 8 8 7 5 5 5 4 3 2
18 20 21 18 15 11 8 8 9 10 9 8 6 6 7 7 7 8 9 7 4 2 2 2 1 1 0 1 4 6 5 6 7 8 10 12 11 9 7 8 9 7 5
15 16 16 14 12 10 7 6 6 8 8 6 4 4 5 6 6 6 6 5 4 3 1 1 0 0 0 2 5 7 8 9 10 10 11 13 14 14 13 12 12 11 10
11 10 9 9 8 9 7 6 5 7 7 6 4 4 5 5 4 4 4 4 3 3 2 1 1 1 1 2 4 7 8 9 10 11 10 12 16 18 18 17 14 13 13
6 5 5 6 6 8 9 8 7 6 6 7 5 4 5 5 4 3 3 3 3 3 3 3 4 3 2 3 3 4 5 6 8 9 9 11 15 18 18 17 14 13 13
4 4 5 7 7 9 10 9 6 5 6 7 6 5 6 6 4 3 3 3 3 4 3 3 4 3 1 2 2 2 2 5 6 7 9 10 11 13 14 13 12 11 10
9 10 12 13 13 12 11 9 6 4 5 7 8 8 8 8 6 4 4 4 4 4 2 1 1 1 0 0 1 2 3 4 5 6 8 8 7 9 10 9 9 8 8
19 21 23 22 20 17 14 10 8 6 6 7 10 11 11 9 7 5 5 4 3 2 1 0 0 0 0 0 0 1 2 3 4 6 7 6 5 6 7 7 7 8 7
26 28 30 28 24 21 17 14 12 11 10 10 11 12 11 9 8 6 5 3 2 1 2 1 0 0 0 0 0 0 2 3 4 6 7 6 5 4 4 4 6 7 6
29 30 32 31 26 22 19 18 16 14 14 14 14 13 11 11 10 7 5 3 2 2 3 2 1 1 1 0 0 0 2 3 4 7 8 6 4 3 2 2 2 3 3
32 32 33 33 30 25 22 22 21 18 17 18 18 17 16 14 12 9 6 5 4 3 2 1 1 1 1 0 0 0 1 3 5 7 7 6 4 3 3 1 1 1 1
32 33 35 36 35 31 27 26 24 21 21 21 21 20 19 17 13 9 8 6 3 1 1 0 1 1 1 0 0 0 0 2 5 6 6 5 4 4 4 3 3 3 2
32 34 36 38 39 35 30 29 27 24 24 24 22 19 18 16 12 10 9 7 3 1 0 1 2 2 1 0 0 0 1 3 5 5 4 3 3 3 3 3 4 5 5
35 36 38 40 39 36 32 30 28 25 24 23 21 17 15 13 12 11 10 7 5 2 1 2 3 3 2 1 0 1 2 3 4 4 3 2 1 1 1 3 4 5 6
37 37 38 38 37 36 34 30 26 23 22 20 18 15 12 11 12 12 10 8 6 4 3 3 4 3 3 2 1 1 2 3 3 3 3 2 1 0 0 1 3 3 3
35 35 34 34 33 33 31 27 22 19 19 18 17 14 11 10 11 11 10 9 7 6 5 4 4 4 3 3 1 0 1 1 2 3 3 2 1 0 0 0 1 1 1
31 30 29 28 29 28 26 23 19 16 17 18 16 13 11 10 10 11 11 10 8 6 4 4 4 3 3 3 2 1 0 0 1 2 2 2 1 0 0 0 0 0 0
28 28 26 24 24 23 21 18 15 14 15 15 14 11 10 10 10 11 11 10 8 6 4 3 3 3 3 3 3 1 1 1 0 1 1 1 0 0 0 0 0 0 0
26 27 25 22 21 19 17 15 13 12 12 12 10 9 9 9 10 10 10 8 6 4 3 2 3 3 3 3 2 2 2 1 0 0 0 0 0 0 0 0 0 0 0
26 26 25 22 20 17 15 13 12 11 10 9 8 8 8 9 9 9 7 6 4 2 1 1 2 3 3 3 2 1 1 1 0 0 0 0 0 0 0 0 0 0 0

GEFSMW_con_probscp_162.txt.gz
Probability
69 66 62 58 58 60 57 49 42 34 28 25 26 25 18 14 12 12 11 6 2 1 2 3 4 2 1 1 0 0 0 0 0 1 0 0 0 0 0 0 0 0 0
71 68 63 59 60 62 58 50 43 35 28 26 28 26 22 17 14 14 13 9 5 3 2 3 3 2 2 2 1 0 0 0 1 1 1 0 0 0 0 0 1 1 0
69 67 63 60 61 62 57 49 42 34 27 25 26 26 23 19 16 15 16 14 9 6 4 4 5 5 5 5 3 1 0 0 1 2 1 0 0 0 0 0 1 2 2
65 63 61 60 59 57 51 44 39 33 26 23 24 24 21 18 17 17 18 17 13 10 9 9 9 8 8 7 4 2 1 0 1 2 1 1 1 1 0 0 1 2 3
60 57 57 57 55 50 44 38 35 33 28 24 23 22 21 18 17 18 19 20 17 13 11 12 11 10 9 9 8 5 3 2 1 1 1 1 2 1 0 0 1 2 4
52 51 51 52 48 43 39 35 34 32 27 22 21 20 19 18 16 16 20 22 19 14 12 12 12 11 10 12 12 9 7 5 2 2 2 2 2 2 1 1 2 2 4
45 45 47 46 42 37 35 33 31 29 24 19 18 16 15 14 14 14 17 20 18 15 13 13 14 14 13 13 14 13 10 8 5 5 5 4 4 3 2 3 2 1 2
36 38 42 42 38 33 32 30 27 24 20 17 15 13 12 11 11 12 14 15 14 13 13 15 16 15 14 14 16 15 12 10 9 7 7 8 7 6 5 6 4 1 1
27 30 35 37 33 28 27 26 24 22 19 17 14 11 12 12 10 10 11 11 10 10 12 14 13 13 12 13 15 14 12 12 12 10 9 9 8 7 8 11 10 4 1
23 27 31 31 27 22 21 24 25 24 21 18 14 12 13 14 12 10 10 9 8 9 12 12 10 9 10 11 12 11 10 11 13 11 8 7 7 6 8 11 11 7 3
24 27 29 28 24 20 22 26 28 26 23 20 17 15 16 16 15 12 10 9 8 8 10 11 10 9 9 9 8 7 7 7 8 7 5 5 5 5 5 6 6 6 5
27 30 32 30 26 25 29 32 30 26 23 22 20 19 17 17 15 13 11 11 10 9 10 12 12 10 9 8 6 4 4 3 3 4 5 4 4 5 4 4 4 4 4
34 37 40 38 34 35 39 39 33 27 25 25 25 22 19 17 16 14 13 14 14 13 13 15 14 11 9 7 4 2 2 2 3 4 5 5 5 5 5 5 5 5 4
45 48 52 50 46 46 47 43 37 32 30 30 29 25 21 19 19 17 16 17 17 16 16 16 13 10 9 6 3 2 3 3 3 4 6 6 6 6 6 5 4 4 5
53 57 60 60 56 53 50 47 42 38 36 34 32 27 23 22 21 19 17 17 16 15 14 13 11 9 7 5 2 2 4 4 4 5 6 6 5 5 5 4 3 4 5
55 59 63 63 60 56 52 51 48 44 41 37 33 28 25 24 22 20 19 18 16 14 13 11 9 7 4 2 1 2 5 6 6 7 8 7 5 4 4 4 3 3 3
55 59 63 62 60 56 54 53 51 48 42 38 34 30 27 26 25 22 21 21 18 15 13 12 9 7 3 1 0 1 4 7 7 7 8 8 6 4 4 4 4 3 2
59 62 64 62 59 56 54 52 52 49 42 37 34 31 28 27 26 24 23 22 20 16 14 13 10 7 4 1 0 1 3 6 7 6 7 7 6 5 4 4 4 3 3
62 64 65 63 61 58 55 54 54 50 42 36 34 31 28 26 25 24 24 22 20 17 14 12 11 9 6 2 0 0 2 5 6 6 6 5 4 4 3 3 4 3 3
61 63 65 66 65 62 58 56 55 50 43 38 35 32 28 25 24 22 21 20 18 15 12 11 11 11 8 4 1 0 2 5 7 6 5 3 2 2 2 3 3 3 3
60 61 64 67 67 63 58 54 53 51 47 42 37 32 27 23 20 20 19 17 15 13 12 11 11 12 9 5 2 1 2 5 7 6 4 2 1 1 1 1 2 3 3
59 59 62 64 64 60 56 52 51 51 48 41 33 27 23 19 17 17 16 16 14 14 14 13 11 10 8 5 3 1 1 3 4 5 4 2 1 0 0 0 1 2 1
56 56 56 58 57 55 51 48 47 46 42 34 26 22 20 18 16 15 14 14 14 14 14 13 10 8 6 5 3 1 0 1 1 2 2 1 0 0 0 0 0 0 0
50 49 49 48 47 46 44 41 39 39 34 27 22 19 18 17 16 13 12 12 11 11 12 13 11 8 5 4 3 1 1 1 1 1 1 1 1 0 0 0 0 0 0
42 42 42 40 37 36 35 33 32 32 29 23 20 18 16 14 13 11 9 8 7 7 9 11 10 7 4 2 1 1 2 2 2 2 2 2 2 1 0 0 0 0 0
37 38 38 35 32 30 30 29 29 29 26 21 18 15 14 12 11 9 6 4 3 3 4 5 6 6 2 0 0 1 1 1 1 2 3 3 3 2 1 0 0 0 0

GEFSMW_con_probscp_168.txt.gz
Probability
51 53 53 50 44 39 34 28 21 16 12 8 6 5 5 6 5 3 2 1 0 0 0 0 0 0 0 0 0 0 0 0 0 0 0 0 0 0 0 0 0 0 0
50 51 53 52 46 38 31 25 20 16 12 8 6 5 4 3 3 3 3 2 1 0 0 0 0 0 0 0 0 0 0 0 0 0 0 0 0 0 0 0 0 0 0
48 48 51 51 45 36 28 23 19 16 13 10 8 7 5 2 2 2 3 3 2 1 0 0 0 0 0 0 0 0 0 0 0 0 0 0 0 0 0 0 0 0 0
46 46 46 44 40 33 27 23 20 17 14 12 11 9 6 3 2 2 3 3 3 2 1 0 0 0 0 0 0 0 0 0 0 0 0 0 0 0 0 0 0 0 0
43 42 41 37 32 28 24 21 18 15 13 12 11 9 6 3 1 1 3 3 3 3 2 1 0 0 0 0 0 0 0 0 0 0 0 0 0 0 0 0 0 0 0
38 38 36 31 26 24 22 18 15 13 12 11 10 8 5 2 1 0 2 3 3 3 3 2 0 0 0 0 0 0 0 0 0 0 0 0 0 0 0 0 0 0 0
34 35 33 28 24 21 19 16 13 12 11 11 10 8 5 2 1 0 1 2 3 3 3 3 1 0 0 0 0 0 0 0 0 0 0 0 0 0 0 0 0 0 0
33 33 30 25 20 16 14 14 13 11 9 9 9 7 5 2 1 1 1 3 4 3 3 2 1 0 0 0 0 0 0 0 0 0 0 0 0 0 0 0 0 0 0
33 30 25 21 16 12 12 12 12 8 6 6 6 6 5 3 2 2 3 3 4 4 3 1 0 0 0 1 0 0 0 0 0 0 0 0 0 0 0 0 0 0 0
31 26 21 18 16 13 11 10 8 6 4 4 6 7 6 3 3 3 3 3 4 5 4 2 0 0 0 0 0 0 0 0 0 0 0 0 0 0 0 0 0 0 0
28 23 19 19 19 16 11 8 7 5 4 4 5 7 7 4 3 3 3 3 3 4 4 2 1 0 0 0 0 0 0 0 0 0 0 0 0 0 0 0 0 0 0
23 20 18 20 23 20 15 11 9 7 6 6 5 5 5 4 4 3 3 3 3 3 3 3 2 1 1 0 0 0 0 0 0 0 0 0 0 0 0 0 0 0 0
21 19 18 21 24 24 20 16 11 8 8 8 6 4 3 4 5 4 3 2 2 2 3 3 3 3 2 1 0 0 0 0 0 0 0 0 0 0 0 0 0 0 0
26 24 22 22 25 25 23 17 11 9 8 8 6 4 4 5 5 5 3 1 1 1 1 2 2 3 3 2 2 2 1 0 0 0 0 0 0 0 0 0 0 0 0
33 32 30 29 28 27 23 17 12 9 9 8 7 5 5 4 5 5 4 3 1 0 0 1 1 1 2 2 2 2 2 1 0 0 0 0 0 0 0 0 0 0 0
38 39 39 37 34 30 24 18 13 11 11 10 7 6 6 5 4 5 6 5 3 1 1 0 0 0 1 1 1 1 1 1 0 0 0 0 0 0 0 0 0 0 0
42 42 42 41 40 35 27 19 15 13 12 10 8 6 6 5 4 5 6 6 4 3 2 1 1 1 0 0 0 0 0 0 0 0 0 0 0 0 0 0 0 0 0
43 41 39 40 41 38 30 23 19 17 14 11 8 7 7 5 4 5 6 6 5 4 4 3 3 2 1 0 0 0 0 0 0 0 0 0 0 0 0 0 0 0 0
39 38 37 39 39 37 32 26 23 20 16 12 9 8 7 5 5 7 7 7 6 6 6 6 5 4 2 1 0 0 0 0 0 0 0 0 0 0 0 0 0 0 0
40 39 39 39 36 33 31 28 24 21 15 10 8 8 7 6 7 8 8 8 7 7 7 7 6 5 4 2 1 0 0 0 0 0 0 0 0 0 0 0 0 0 0
43 41 39 35 31 29 30 29 26 21 15 9 8 8 8 7 7 7 7 7 8 9 9 8 7 6 4 2 1 0 0 0 0 0 0 0 0 0 0 0 0 0 0
38 37 35 32 28 29 30 30 26 21 15 11 9 9 8 7 6 6 6 7 7 8 9 8 6 5 4 2 1 0 0 0 0 0 0 0 0 0 0 0 0 0 0
28 29 30 28 26 28 28 25 21 18 14 11 9 9 8 7 6 6 6 6 7 7 7 6 5 4 3 1 0 0 0 0 0 0 0 0 0 0 0 0 0 0 0
23 24 25 24 24 24 24 21 18 15 11 9 7 7 7 6 6 6 6 6 6 6 6 6 5 5 3 1 0 0 0 0 0 0 0 0 0 0 0 0 0 0 0
23 22 21 20 19 19 18 18 15 12 9 7 6 5 6 6 6 5 5 5 5 4 4 5 5 5 3 1 0 0 0 0 0 0 0 0 0 0 0 0 0 0 0
22 21 19 17 16 15 15 15 13 10 7 6 6 4 5 6 6 5 4 4 4 4 4 4 4 4 3 2 1 0 0 0 0 0 0 0 0 0 0 0 0 0 0

GEFSMW_con_probscp_174.txt.gz
Probability
22 23 23 22 20 15 11 8 7 9 8 7 5 4 3 3 2 1 0 0 0 0 0 0 0 0 0 0 0 0 0 0 0 0 0 0 0 0 0 0 0 0 0
26 26 24 22 20 17 14 11 10 11 10 7 6 3 2 2 2 1 0 0 0 0 0 0 0 0 0 0 0 0 0 0 0 0 0 0 0 0 0 0 0 0 0
28 27 25 22 19 18 16 13 10 9 8 6 5 3 2 1 1 0 0 0 0 0 0 0 0 0 0 0 0 0 0 0 0 0 0 0 0 0 0 0 0 0 0
26 26 25 21 17 16 15 11 7 5 5 4 4 3 3 2 1 0 0 0 0 0 0 0 0 0 0 0 0 0 0 0 0 0 0 0 0 0 0 0 0 0 0
24 25 23 19 15 13 13 10 6 3 3 3 3 3 3 2 1 0 0 0 0 0 0 0 0 0 0 0 0 0 0 0 0 0 0 0 0 0 0 0 0 0 0
25 24 21 18 13 10 10 8 4 2 1 1 2 3 2 1 0 0 0 0 0 1 0 0 0 0 0 0 0 0 0 0 0 0 0 0 0 0 0 0 0 0 0
23 22 20 16 12 8 7 5 2 1 0 1 2 3 2 1 1 0 0 0 0 0 0 0 0 0 0 0 0 0 0 0 0 0 0 0 0 0 0 0 0 0 0
17 18 18 15 10 6 5 4 2 0 0 0 1 1 2 2 2 1 1 1 1 1 0 0 0 0 0 0 0 0 0 0 0 0 0 0 0 0 0 0 0 0 0
11 12 13 10 6 4 4 4 3 1 0 0 0 0 1 3 3 3 2 2 2 2 1 1 1 1 1 1 1 1 0 0 0 0 0 0 0 0 0 0 0 0 0
8 8 8 6 4 2 2 2 1 0 0 0 0 0 1 2 2 3 3 3 3 3 3 2 2 2 2 2 2 2 1 1 0 0 0 0 0 0 0 0 0 0 0
7 6 6 5 4 3 3 2 1 0 0 1 1 0 0 1 1 1 2 3 3 3 3 3 3 3 3 2 3 3 3 2 1 0 0 0 0 0 0 0 0 0 0
5 5 5 6 6 5 4 3 1 0 0 1 1 0 0 0 0 0 1 2 2 2 2 2 2 2 2 2 2 2 3 3 2 1 0 0 0 0 0 0 0 0 0
6 6 7 7 8 7 7 5 3 1 1 1 1 0 0 0 0 0 0 1 1 1 1 0 1 1 1 1 1 1 1 2 3 2 1 0 0 0 0 0 0 0 0
9 10 10 11 10 10 9 9 6 3 2 2 1 0 0 0 0 0 0 0 0 0 0 0 0 0 0 0 0 0 0 1 2 3 2 1 0 0 0 0 0 0 0
14 14 15 15 15 13 12 12 10 6 4 3 2 1 0 0 0 0 0 0 0 0 0 0 0 0 0 0 0 0 0 0 1 2 2 1 0 0 0 0 0 0 0
17 18 19 20 19 17 16 16 13 8 5 4 3 2 1 0 0 0 0 1 1 0 0 0 1 1 1 1 0 0 0 0 0 1 2 2 1 0 0 0 0 0 0
18 19 20 21 21 20 19 17 13 9 7 5 5 3 1 1 1 1 1 2 3 2 1 1 2 2 2 2 1 0 0 0 0 0 1 1 1 0 0 0 0 0 0
17 18 20 21 21 20 18 15 12 9 7 6 5 3 2 2 2 2 3 3 4 4 3 3 4 4 3 3 1 0 0 0 0 0 0 0 0 0 0 0 0 0 0
17 19 20 20 20 20 16 12 10 9 7 5 5 4 3 3 3 3 3 3 4 4 5 5 5 4 4 3 2 1 1 1 0 0 0 0 0 0 0 0 0 0 0
19 20 20 20 20 18 16 13 10 8 7 6 6 5 4 3 2 2 2 2 3 3 4 4 4 4 3 3 2 1 2 2 1 1 0 0 0 0 0 0 0 0 0
22 20 18 18 19 16 13 12 10 9 8 8 7 7 5 3 1 1 2 2 2 3 3 3 3 3 3 3 2 1 2 3 3 2 1 0 0 0 0 0 0 0 0
25 21 17 15 14 12 10 10 9 9 9 9 8 8 6 3 2 2 2 2 3 3 2 1 2 3 3 3 3 1 1 2 3 3 2 1 0 0 0 0 0 0 0
25 22 17 13 10 8 8 7 7 7 8 9 8 7 6 4 3 3 3 3 3 3 2 1 2 3 3 3 3 2 1 1 2 2 2 1 0 0 0 0 0 0 0
25 22 18 13 9 6 5 5 6 6 6 7 7 7 6 4 3 3 3 3 3 3 2 2 2 3 3 3 3 2 2 1 1 1 1 0 0 0 0 0 0 0 0
24 22 18 12 7 4 4 4 5 5 5 6 7 6 5 4 3 3 3 2 2 1 1 1 2 2 2 2 1 1 2 2 2 2 1 0 0 0 0 0 0 0 0
21 20 17 10 5 4 4 5 5 5 4 5 6 6 5 4 3 3 2 1 1 0 0 0 1 1 1 1 0 0 1 3 3 2 1 1 0 0 0 0 0 0 0

GEFSMW_con_probscp_180.txt.gz
Probability
17 22 26 27 29 30 30 30 26 19 14 9 6 5 6 7 6 5 2 1 0 0 0 0 0 0 0 0 0 0 0 0 0 0 0 0 0 0 0 0 0 0 0
18 23 29 31 33 34 33 31 28 22 16 11 7 6 7 8 6 3 1 0 0 0 0 0 0 0 0 0 0 0 0 0 0 0 0 0 0 0 0 0 0 0 0
20 24 29 34 37 37 33 29 27 24 19 13 9 7 8 7 4 2 1 1 0 0 0 0 0 0 0 0 0 0 0 0 0 0 0 0 0 0 0 0 0 0 0
21 23 26 32 35 32 28 26 25 24 21 15 10 8 7 5 3 2 2 2 1 1 0 0 0 0 0 0 0 0 0 1 1 1 1 1 1 0 0 0 0 0 0
19 20 25 30 31 26 23 21 21 21 20 15 10 8 6 4 3 3 4 4 3 2 1 1 1 1 1 1 1 1 1 2 3 3 3 3 2 1 2 2 1 0 0
15 18 24 27 27 24 19 16 16 16 16 14 11 10 9 8 8 8 7 6 4 3 2 2 4 4 4 3 3 3 2 4 5 5 5 5 4 4 5 5 3 1 1
12 17 22 25 25 22 17 13 13 14 14 15 15 14 13 13 12 11 11 8 5 4 3 5 7 8 8 7 6 5 4 4 5 7 8 7 7 7 7 5 2 1 1
12 16 20 22 22 20 16 12 12 12 14 16 17 15 15 14 11 10 10 9 6 4 3 4 7 8 9 8 8 6 4 4 5 7 8 8 8 8 6 5 4 2 1
10 14 17 18 18 18 14 11 11 12 14 15 15 14 14 13 10 8 8 8 7 4 2 2 3 5 7 7 7 6 5 6 6 6 6 8 9 8 7 7 7 3 1
8 11 14 15 16 15 13 10 11 13 13 13 12 11 12 12 10 7 6 7 7 6 4 2 2 3 5 6 6 5 6 6 6 6 6 7 8 9 8 8 7 6 4
9 11 14 16 16 14 12 10 10 11 11 11 11 9 9 9 8 6 4 5 6 6 5 4 4 4 5 5 5 5 5 6 6 5 4 4 7 8 7 6 7 8 8
14 15 17 20 20 19 17 13 11 10 10 11 10 10 9 8 6 4 2 2 3 3 3 4 4 4 5 6 6 5 4 5 6 5 3 3 5 6 5 5 6 9 9
22 22 25 28 29 29 27 21 16 14 14 13 12 11 10 8 7 4 2 2 2 2 2 2 3 4 5 6 6 6 5 6 6 6 4 3 4 5 5 4 5 6 6
29 31 36 39 38 37 35 29 23 21 20 18 16 13 12 10 8 7 6 5 3 3 2 2 3 3 4 5 6 7 8 7 7 7 7 5 4 4 4 3 3 4 4
31 36 42 44 43 41 37 31 27 26 25 23 20 17 16 14 11 9 9 8 6 4 3 3 3 3 3 4 5 7 9 8 7 7 7 5 3 3 2 2 3 4 5
32 37 43 45 45 43 37 32 27 27 28 27 24 23 22 19 14 11 9 8 7 6 6 5 4 3 3 3 3 4 7 7 6 7 6 5 3 2 2 1 1 3 4
36 38 41 43 44 41 37 33 30 28 28 27 25 25 24 21 16 13 10 7 6 5 6 5 4 4 3 2 1 2 4 5 5 6 5 4 3 3 3 3 2 2 3
39 39 39 40 41 39 37 35 33 29 26 24 23 22 21 19 18 15 11 8 6 5 4 3 4 4 3 2 1 1 3 4 4 4 4 3 3 4 4 4 3 3 4
41 41 41 42 43 41 38 35 34 30 27 25 23 19 17 18 18 16 12 9 8 7 5 3 3 2 2 1 0 1 2 4 4 4 3 3 3 3 4 4 5 5 5
45 45 46 48 48 44 39 37 35 32 29 26 23 21 19 19 18 16 12 11 11 8 6 4 2 1 1 1 1 0 2 4 4 4 4 4 3 3 3 3 5 6 6
44 45 47 48 48 44 41 39 37 32 27 24 24 24 24 21 18 16 13 11 9 7 5 4 3 2 3 2 1 0 1 3 3 3 4 4 3 1 1 2 4 4 4
42 43 46 47 46 44 42 40 36 29 23 21 24 26 25 21 18 16 13 9 7 5 3 3 3 3 3 3 2 1 0 1 2 2 2 2 2 1 0 1 2 1 1
41 42 45 46 44 41 38 35 31 26 23 22 23 24 22 20 17 15 12 8 5 4 3 3 3 3 3 3 3 1 1 0 1 1 1 0 0 0 0 0 0 0 0
36 36 38 40 38 33 31 28 25 24 25 24 23 22 19 15 13 12 9 6 5 4 3 3 3 3 4 3 3 3 2 1 1 1 1 0 0 0 0 0 0 0 0
30 29 30 32 30 27 24 24 23 23 23 23 22 20 16 11 9 8 6 5 4 3 3 3 3 4 4 4 3 3 3 2 1 1 1 0 0 0 0 0 1 1 1
27 26 27 28 27 24 22 21 22 21 20 20 20 19 15 10 8 6 4 4 3 2 2 3 3 4 4 4 3 3 3 1 1 1 1 0 0 0 0 0 1 2 2

GEFSMW_con_probscp_186.txt.gz
Probability
47 51 54 56 58 59 57 53 50 48 43 34 24 17 16 16 13 12 11 10 8 5 4 3 3 3 3 3 3 3 3 4 4 4 3 3 3 4 6 8 7 6 4
52 56 59 59 61 61 57 53 51 50 46 39 29 20 16 15 13 12 13 13 11 8 4 3 3 3 3 3 3 3 3 4 4 4 3 3 3 3 4 6 7 7 6
58 60 61 61 62 63 59 55 53 51 48 43 34 24 18 17 16 15 16 17 16 12 8 6 4 4 4 4 3 3 4 4 4 3 3 3 4 3 4 5 5 6 7
59 59 58 59 60 61 60 58 55 50 47 44 37 29 23 20 20 19 19 20 20 18 13 9 7 7 7 6 5 5 5 5 4 4 4 4 4 4 4 4 4 5 7
56 56 56 56 56 57 59 59 56 51 47 44 38 31 24 19 19 20 21 21 23 22 18 13 11 10 10 8 7 7 7 7 6 6 5 4 5 5 4 4 3 5 7
52 53 55 57 56 54 55 55 53 50 47 41 36 31 25 19 18 19 20 21 22 23 20 17 15 13 11 10 9 10 9 8 7 7 6 4 5 6 5 4 3 5 7
48 49 54 59 58 53 51 50 49 48 45 39 34 32 29 24 20 18 18 20 20 20 19 19 20 17 13 10 10 11 11 10 9 8 6 6 6 6 6 5 4 4 5
42 43 49 54 54 50 49 49 50 49 44 38 34 33 31 27 20 17 18 20 19 17 18 20 21 19 15 12 11 12 12 12 10 7 7 8 8 7 6 5 4 3 3
34 36 40 45 46 46 48 51 52 51 45 38 34 32 30 25 18 16 18 20 18 16 17 18 17 17 18 16 15 14 12 12 10 7 6 8 8 7 6 6 4 2 1
28 30 33 36 40 43 48 52 54 51 44 38 33 30 27 24 19 16 17 18 17 17 16 14 14 16 19 20 19 17 14 12 10 8 7 7 7 6 6 7 5 4 3
28 29 31 35 40 44 48 52 53 49 43 39 35 31 28 26 23 20 18 18 19 19 18 16 15 15 17 19 19 18 16 14 13 12 10 8 7 7 8 8 8 9 10
35 35 38 42 45 46 49 53 52 48 43 41 40 36 32 30 28 24 20 19 19 19 19 19 17 15 14 15 17 16 16 16 17 16 13 10 9 11 12 11 11 12 12
45 46 48 50 51 52 54 55 53 48 43 42 41 39 35 32 30 27 22 19 18 17 17 17 15 14 13 14 14 14 14 15 16 16 14 12 12 13 14 13 12 12 11
53 54 56 56 58 60 59 56 52 48 45 44 41 39 37 33 31 30 28 23 20 18 17 14 12 12 13 13 13 12 12 13 13 14 14 12 12 12 13 12 12 11 10
56 56 56 57 60 62 61 56 50 47 47 45 42 40 39 36 35 36 35 31 26 23 19 14 11 12 11 9 8 8 8 10 11 12 12 10 8 8 8 8 9 9 9
58 56 54 55 57 58 57 54 49 47 47 46 42 42 42 40 40 40 37 33 29 25 20 15 12 11 7 4 3 4 6 8 10 11 10 7 5 5 5 5 5 5 6
62 58 55 55 54 53 52 50 48 46 47 46 44 43 43 42 42 41 36 32 29 26 23 19 15 10 5 1 0 2 4 6 7 7 7 5 3 4 5 4 4 4 5
64 62 58 56 53 51 50 49 47 46 46 46 45 44 44 43 42 42 40 36 31 28 26 23 17 11 5 1 0 1 3 4 4 4 4 3 2 3 4 5 5 5 6
63 62 59 56 55 53 52 52 49 47 44 44 45 44 43 42 42 43 43 40 35 30 26 23 18 12 7 3 1 1 2 3 3 3 3 3 3 3 3 4 4 5 6
61 60 58 57 59 58 56 55 51 45 42 41 43 44 43 42 41 42 42 39 35 29 24 21 17 13 8 4 2 1 2 3 3 3 3 3 3 2 2 2 3 4 4
60 59 58 59 61 61 60 58 52 45 42 42 41 41 41 39 38 38 38 36 32 27 22 19 15 11 7 4 2 1 2 3 3 3 3 3 3 1 1 1 2 2 2
60 59 58 60 62 62 61 59 53 47 45 43 40 36 35 34 34 35 35 33 30 25 21 16 12 8 5 3 3 1 1 2 3 3 3 3 3 1 0 0 1 1 1
59 58 56 57 58 58 59 58 53 48 46 43 38 34 30 29 30 31 30 28 26 22 17 13 9 6 4 3 3 2 1 1 2 3 3 3 2 1 0 0 0 0 0
54 54 53 52 52 54 54 52 48 46 45 41 37 33 30 27 26 26 23 21 20 17 12 9 6 4 3 3 3 2 2 1 2 3 3 3 2 1 1 1 0 0 0
48 50 50 50 50 50 48 45 42 41 40 37 34 32 30 27 23 20 17 14 12 10 7 5 4 3 3 2 1 1 2 2 2 2 3 3 3 2 2 2 1 0 0
47 49 48 47 48 48 46 42 39 37 35 33 33 31 30 28 23 17 13 10 7 6 4 2 2 3 3 1 0 0 1 1 1 2 3 3 3 3 3 2 1 0 0

GEFSMW_con_probscp_192.txt.gz
Probability
44 45 45 41 36 32 27 23 18 13 10 9 7 6 4 1 1 1 1 2 2 2 1 0 0 0 0 0 0 0 0 0 0 0 0 0 0 0 0 0 0 0 0
41 44 46 44 40 34 30 27 22 18 15 11 7 5 4 2 1 1 1 1 2 1 0 0 0 0 0 0 0 0 0 0 0 0 0 0 0 0 0 0 0 0 0
37 42 45 45 42 39 36 31 26 22 19 13 7 5 5 4 3 2 1 1 2 2 1 1 1 0 0 0 0 0 0 0 0 0 0 0 0 0 0 0 0 0 0
37 39 41 42 41 42 41 35 29 24 20 15 8 6 6 6 5 4 2 1 1 2 2 2 1 0 0 0 0 0 0 0 0 0 0 0 0 0 0 0 0 0 0
35 35 36 35 35 38 40 38 33 28 25 18 9 6 6 6 4 3 2 1 1 2 3 3 2 1 1 1 0 0 0 0 0 0 0 0 0 0 0 0 0 0 0
32 32 30 30 30 33 36 37 34 30 28 21 12 6 5 4 3 2 2 1 1 2 4 4 3 2 2 1 0 0 0 0 0 0 0 0 0 0 0 0 0 0 0
30 28 26 27 30 32 34 34 31 28 26 22 16 9 5 4 3 2 1 1 1 1 3 4 2 1 1 1 0 0 0 0 0 0 0 0 0 0 0 0 0 0 0
25 23 21 24 29 34 35 34 30 26 23 23 21 15 9 6 4 2 1 0 0 0 2 3 2 1 0 0 0 0 0 0 0 0 0 0 0 0 0 0 0 0 0
19 19 19 22 28 33 36 35 31 26 23 22 22 18 14 9 5 2 1 0 0 1 2 3 3 1 0 0 0 0 0 0 0 0 0 0 0 0 1 1 0 0 0
16 17 19 20 24 30 34 35 32 28 24 21 19 18 16 12 8 4 1 1 1 2 3 3 2 1 0 0 0 0 0 0 0 0 0 0 0 1 2 2 1 1 0
17 18 21 22 24 28 33 34 33 30 26 21 17 16 15 13 9 6 3 3 3 4 4 4 2 1 0 0 0 0 0 0 0 0 1 1 1 2 3 3 2 1 1
19 21 24 27 28 29 32 34 34 31 26 21 16 14 14 12 9 7 6 5 4 4 5 4 2 1 1 1 1 1 1 1 1 1 2 2 3 3 3 2 1 1 0
24 25 27 30 30 28 30 32 32 30 26 21 16 14 14 13 10 9 8 7 5 4 4 3 2 2 2 2 3 3 3 2 2 3 3 3 3 2 1 1 0 0 0
30 31 31 30 28 27 29 31 31 28 26 24 19 16 15 13 12 11 9 7 6 4 4 4 3 3 3 3 4 4 4 3 3 3 3 3 2 1 0 0 0 0 0
35 36 35 33 31 30 30 32 31 28 27 24 21 19 17 14 13 11 10 9 7 6 5 4 3 3 3 3 3 4 3 3 3 3 2 1 1 0 0 0 0 0 0
38 38 38 37 36 35 33 32 30 28 27 25 20 18 17 14 11 10 9 9 8 7 6 4 3 3 3 3 3 2 2 2 2 1 1 0 0 0 0 0 0 0 0
41 40 38 38 39 37 34 31 28 27 27 25 20 17 15 13 10 8 7 7 6 6 7 6 4 3 3 3 2 1 1 1 1 0 0 0 0 0 0 0 0 0 0
43 41 39 38 39 38 35 31 28 27 26 24 20 17 15 13 11 9 8 7 6 6 7 6 4 3 3 3 2 1 0 0 0 0 0 0 0 0 0 0 0 0 0
42 41 40 39 37 36 35 33 30 28 27 25 21 18 16 15 13 11 10 9 9 8 7 6 6 5 4 4 3 1 0 0 0 1 1 0 0 0 0 0 0 1 1
43 43 43 41 37 35 35 34 32 31 29 27 24 18 16 15 13 12 11 11 11 9 6 6 7 6 6 5 3 1 0 1 1 2 2 1 1 0 0 0 0 1 2
48 47 45 43 38 34 34 35 34 32 30 27 24 19 15 14 13 12 11 10 9 8 6 6 6 6 6 5 3 1 0 1 2 2 3 2 1 0 0 0 0 1 1
51 49 46 43 39 36 35 34 31 29 27 24 20 18 17 16 15 13 11 8 7 7 6 5 4 3 3 3 2 0 0 1 2 2 2 2 1 0 0 0 0 0 0
48 47 44 42 38 35 33 31 28 26 24 20 17 16 17 17 16 14 11 7 5 6 6 4 2 1 1 2 1 0 0 0 1 1 1 1 0 0 0 0 0 0 0
40 39 39 37 34 31 29 27 25 24 20 17 15 14 15 15 13 11 9 7 6 6 6 4 2 1 0 0 0 0 0 0 0 0 0 0 0 0 0 0 0 0 0
31 31 31 30 26 24 23 21 20 18 16 14 14 13 12 10 8 7 6 6 6 5 4 3 2 1 0 0 0 0 0 0 0 0 0 0 0 0 0 0 0 0 0
26 25 25 24 22 20 19 17 16 15 13 13 13 12 11 8 5 4 4 3 3 3 2 1 1 0 0 0 0 0 0 0 0 0 0 0 0 0 0 0 0 0 0

GEFSMW_con_probscp_198.txt.gz
Probability
7 7 7 6 7 9 7 5 4 3 4 5 4 3 2 2 2 2 1 0 0 0 0 0 0 0 0 0 0 0 0 0 0 0 0 0 0 0 0 0 0 0 0
7 8 8 8 8 8 6 5 4 3 4 5 4 3 1 1 1 2 2 0 0 0 0 0 0 0 0 0 0 0 0 0 0 0 0 0 0 0 0 0 0 0 0
9 7 7 8 8 7 6 5 5 4 4 5 4 3 1 0 1 1 1 0 0 0 0 0 0 0 0 0 0 0 0 0 0 0 0 0 0 0 0 0 0 0 0
8 5 5 6 8 9 8 7 7 6 6 5 4 3 2 1 0 0 0 0 0 0 0 0 0 0 0 0 0 0 0 0 0 0 0 0 0 0 0 0 0 0 0
5 4 4 6 8 9 10 9 8 8 9 7 5 3 2 1 0 0 0 0 0 0 0 0 0 0 0 0 0 0 0 0 0 0 0 0 0 0 0 0 0 0 0
4 4 7 9 11 12 12 11 11 12 11 9 5 3 1 0 0 0 0 0 0 0 0 0 0 0 0 0 0 0 0 0 0 0 0 0 0 0 0 0 0 0 0
4 6 9 11 13 15 15 14 14 14 12 9 6 3 1 0 1 1 0 0 0 0 0 0 0 0 0 0 0 0 0 0 0 0 0 0 0 0 0 0 0 0 0
5 7 9 11 13 15 17 18 16 14 11 8 6 4 3 2 3 2 1 0 0 0 0 0 0 0 0 0 0 0 0 0 0 0 0 0 0 0 0 0 0 0 0
6 7 8 8 9 12 15 18 16 12 9 7 6 6 6 5 5 4 2 1 0 0 0 0 0 0 0 0 0 0 0 0 0 0 0 0 0 0 0 0 0 0 0
7 8 7 6 7 10 13 16 14 11 8 7 7 8 7 6 5 4 2 1 0 0 0 1 1 1 0 0 0 0 0 0 0 0 0 0 0 0 0 0 0 0 0
9 8 7 6 8 10 12 13 12 10 9 8 9 9 8 6 5 3 1 0 0 0 0 0 0 0 0 0 0 0 0 0 0 0 0 0 0 0 0 0 0 0 0
11 10 8 8 10 11 12 11 10 10 8 8 8 9 8 7 5 3 1 1 1 1 0 0 0 0 0 0 0 0 0 0 0 0 0 0 0 0 0 0 0 0 0
12 11 11 11 12 12 12 11 10 9 9 8 8 8 7 6 5 3 3 2 2 2 1 0 0 0 0 0 0 0 0 0 0 0 0 0 0 0 0 0 0 0 0
15 14 14 14 13 12 13 12 10 10 11 10 8 7 6 4 2 2 3 3 3 2 1 0 0 0 0 0 0 0 0 0 0 0 0 0 0 0 0 0 0 0 0
19 17 17 16 14 14 14 13 11 10 11 12 10 7 5 2 1 1 2 2 2 1 0 0 0 0 0 0 0 0 0 0 0 0 0 0 0 0 0 0 0 0 0
19 18 17 17 17 16 17 16 13 10 11 12 11 7 4 3 2 2 2 2 2 1 0 0 0 0 0 0 0 0 0 0 0 0 0 0 0 0 0 0 0 0 0
14 14 15 15 16 17 19 18 14 11 11 13 12 8 5 4 4 3 3 4 3 1 0 0 1 1 1 0 0 0 0 0 0 0 0 0 0 0 0 0 0 0 0
10 12 15 16 15 16 18 18 15 12 12 13 13 10 6 4 3 3 3 4 3 1 1 1 2 3 2 1 0 0 0 0 1 1 0 0 0 0 0 0 0 0 0
12 14 18 20 19 18 20 19 16 14 12 13 13 12 9 6 3 1 1 1 1 1 1 2 3 4 3 1 0 0 0 1 2 2 1 1 0 0 0 0 0 0 0
16 18 21 23 23 23 23 22 19 16 14 13 13 12 10 7 4 2 1 1 1 1 1 3 3 4 3 1 0 0 0 1 1 1 1 1 0 0 0 0 0 0 0
22 23 24 25 24 25 26 24 20 17 16 16 14 10 7 5 4 4 4 4 3 3 3 3 3 3 2 1 0 0 0 0 0 0 1 1 0 0 0 0 0 0 0
27 27 28 26 24 23 25 25 20 16 16 15 11 7 4 4 5 6 6 6 5 4 3 3 3 2 1 0 0 0 0 0 0 0 0 0 0 0 0 0 0 0 0
27 28 27 25 22 22 23 23 19 14 13 12 9 6 5 6 7 8 9 8 6 4 3 3 2 1 0 0 0 0 0 0 0 0 0 0 0 0 0 0 0 0 0
24 25 23 21 19 20 20 19 16 12 10 10 8 7 6 8 9 9 10 9 7 4 4 4 2 1 0 0 0 0 0 0 0 0 0 0 0 0 0 0 0 0 0
20 22 20 18 17 18 17 16 14 11 9 8 8 8 9 9 8 7 7 6 4 3 4 4 2 1 0 0 0 0 0 0 0 0 0 0 0 0 0 0 0 0 0
20 20 20 18 17 16 16 15 13 11 9 7 7 10 11 10 8 6 3 2 1 1 2 2 1 0 0 0 0 0 0 0 0 0 0 0 0 0 0 0 0 0 0

GEFSMW_con_probscp_204.txt.gz
Probability
9 9 9 9 12 16 17 16 15 15 13 9 5 2 1 1 0 0 0 1 3 3 2 1 0 0 1 1 0 0 0 0 0 0 0 0 1 1 1 0 0 0 0
9 10 10 11 14 17 18 18 19 18 15 10 6 2 1 0 0 0 0 1 3 2 1 0 0 1 2 2 1 0 0 0 0 0 0 0 1 3 2 0 0 1 1
8 9 10 10 12 15 17 19 22 22 18 13 8 4 2 0 0 1 0 0 1 1 0 0 0 1 2 3 2 1 0 0 0 0 1 1 1 3 3 2 2 2 2
5 6 7 7 9 11 14 18 22 24 21 16 12 9 6 3 2 1 1 1 0 0 0 0 0 1 2 3 2 1 1 1 1 1 2 2 1 2 3 3 3 3 2
2 2 3 4 6 8 11 17 23 25 23 18 16 15 12 8 5 4 3 2 1 1 1 1 1 2 3 3 3 3 4 4 3 4 4 2 1 1 1 2 2 1 1
1 1 2 5 6 6 9 16 23 25 24 21 19 18 16 13 10 8 5 3 2 2 2 3 4 5 6 6 5 6 6 6 6 6 5 4 3 3 3 2 1 0 0
1 2 5 8 9 8 10 14 20 23 24 22 20 18 17 15 14 12 8 4 2 3 4 4 5 7 7 7 7 7 7 7 7 7 7 6 4 4 5 5 2 0 0
4 4 8 12 13 12 12 14 16 19 20 19 18 17 17 15 15 16 14 8 4 4 4 4 4 5 5 5 6 7 8 9 9 8 9 9 6 5 6 7 4 1 0
6 7 10 14 15 14 13 13 14 16 18 17 17 17 16 16 15 18 18 13 8 6 6 5 4 5 5 5 8 9 10 13 14 12 11 11 9 7 8 10 9 6 4
8 10 12 15 16 15 12 12 13 17 20 19 18 18 18 17 17 19 20 16 11 11 10 8 6 7 7 8 10 11 12 12 14 13 11 10 9 9 10 12 14 13 11
13 16 18 19 19 16 13 14 16 19 21 21 20 19 18 18 20 20 18 15 13 13 13 10 8 9 10 10 10 9 8 6 8 9 8 8 9 10 11 13 15 16 15
20 23 25 25 23 20 18 17 19 20 20 21 20 19 18 19 21 21 16 12 12 13 12 11 10 11 11 11 9 7 4 3 5 5 6 7 10 11 12 14 14 14 13
26 28 30 28 26 25 23 20 20 19 20 22 22 20 21 22 22 20 15 12 11 11 11 10 10 10 10 10 8 6 4 4 5 5 6 8 12 13 13 12 11 10 10
35 35 34 32 29 28 27 24 21 20 20 23 24 24 24 25 23 18 15 14 13 12 10 9 9 10 9 8 6 4 4 5 7 6 6 8 11 12 11 9 9 9 8
45 44 42 37 33 31 30 29 25 22 21 24 25 25 24 23 21 17 16 16 15 14 13 11 10 9 8 5 2 1 3 6 8 8 7 8 9 9 7 5 6 8 8
54 52 48 42 36 32 32 32 29 26 24 25 26 25 23 21 20 19 19 18 17 17 16 13 9 7 5 2 1 1 2 4 7 9 10 9 8 7 4 2 2 4 6
55 53 49 43 36 32 33 34 32 31 29 29 29 27 24 23 23 23 22 20 19 20 18 13 10 7 4 2 1 0 1 2 5 8 11 11 9 8 5 3 2 2 3
47 47 44 39 33 31 33 35 35 34 34 33 31 28 27 27 27 26 25 23 23 23 21 16 12 9 5 2 1 0 1 3 5 7 11 12 11 8 6 5 4 3 2
40 41 41 37 33 31 34 36 36 35 35 35 32 28 26 26 26 28 28 27 25 24 22 17 13 9 5 1 0 1 3 5 6 8 9 10 8 6 3 3 4 4 3
38 40 41 38 37 37 39 39 37 36 36 34 31 28 27 25 25 27 29 28 25 23 19 15 12 8 4 1 0 1 4 6 8 9 8 7 4 2 1 1 2 3 3
39 41 41 41 43 44 45 46 42 38 36 34 31 29 30 29 26 26 27 25 22 20 17 14 12 8 3 1 1 1 3 6 8 9 7 5 3 1 0 0 1 2 1
42 42 42 44 46 47 48 48 44 39 36 34 33 33 34 32 28 26 26 23 21 19 17 16 13 8 4 3 2 1 1 3 5 6 5 3 1 0 0 0 0 0 0
42 42 42 43 44 43 43 42 38 35 34 34 35 35 33 30 27 26 24 21 19 18 16 16 13 9 6 5 3 1 1 1 2 3 2 1 0 0 0 0 0 0 0
41 41 40 39 37 36 35 35 33 32 32 33 34 32 27 24 23 22 18 16 15 14 14 13 11 8 6 6 4 3 2 2 2 2 1 0 0 0 0 0 0 0 0
41 39 36 33 30 29 29 30 31 31 31 31 31 27 20 17 17 15 12 11 10 10 10 11 9 7 6 4 3 2 2 2 2 2 1 0 0 0 0 0 0 0 0
42 37 33 30 27 26 27 29 31 31 30 29 29 24 17 14 13 12 10 10 9 8 8 9 9 7 5 3 2 1 1 1 2 2 1 1 0 0 0 0 0 0 0

GEFSMW_con_probscp_210.txt.gz
Probability
31 29 27 29 35 38 35 32 29 25 24 24 22 22 21 17 16 16 13 11 11 11 11 9 7 7 8 10 9 7 4 3 3 3 2 2 3 4 3 2 2 2 3
36 34 30 30 36 38 36 33 31 27 26 26 24 22 22 20 19 18 15 11 10 10 9 9 9 8 9 9 8 7 5 4 3 3 1 1 2 4 2 2 3 4 4
40 38 33 32 36 37 37 36 35 30 27 26 24 23 23 23 22 21 19 14 10 9 8 8 9 9 9 8 6 5 5 4 3 3 2 1 1 2 1 2 3 5 5
37 37 34 33 36 37 38 40 40 34 28 25 24 23 23 24 23 21 20 17 13 11 10 9 9 11 11 10 7 5 6 5 4 3 3 2 1 1 0 1 2 3 4
34 36 34 32 33 35 38 43 45 40 32 27 26 24 23 23 22 21 21 20 17 14 13 12 13 15 14 12 10 9 9 9 6 4 4 4 3 1 1 1 1 2 3
33 36 35 32 31 31 35 43 47 45 39 33 30 28 25 23 21 21 22 22 20 17 14 13 14 16 15 14 14 13 13 12 9 7 7 6 5 4 3 2 1 1 2
33 35 36 35 31 30 34 43 49 48 43 37 34 32 28 25 23 22 22 22 20 18 16 14 13 13 12 13 15 15 14 15 13 10 9 9 9 7 6 3 2 2 2
32 33 36 36 33 30 35 44 50 49 44 39 36 32 29 28 26 24 22 21 18 16 16 15 13 10 7 8 11 14 15 18 18 13 10 12 11 10 8 5 3 3 2
31 33 37 37 34 32 36 42 46 47 44 42 37 32 30 30 28 26 24 22 19 16 17 16 14 10 5 4 8 13 16 19 19 14 12 13 13 10 9 7 6 5 3
29 32 38 39 36 35 37 39 43 46 44 42 38 33 31 32 32 30 29 27 24 20 18 17 16 12 8 7 9 12 15 17 18 14 13 13 12 9 7 8 8 8 7
27 31 37 40 38 38 38 38 42 46 45 41 40 37 34 33 33 33 31 29 26 23 19 17 16 14 11 10 11 11 13 15 15 14 14 12 9 7 7 8 9 9 9
31 35 40 42 42 40 39 39 40 43 44 44 44 42 38 34 33 32 31 30 26 23 20 17 16 15 13 13 13 12 12 12 12 13 13 11 7 7 9 8 7 7 8
40 43 48 49 47 44 41 40 39 40 44 47 48 45 41 37 35 32 31 30 26 22 19 18 18 17 16 15 15 14 12 11 11 11 11 10 8 8 10 9 7 6 5
49 51 56 58 56 50 47 45 43 44 46 46 47 45 42 39 37 33 29 26 24 21 19 21 22 21 18 16 14 14 13 12 11 10 9 8 8 8 9 8 7 7 6
54 56 61 64 61 55 52 50 48 50 49 45 44 45 43 40 37 34 29 27 25 24 24 25 25 22 17 13 11 11 11 11 10 9 8 7 6 6 6 5 5 6 8
55 60 66 68 64 59 55 53 52 54 51 46 44 45 44 41 37 35 33 32 32 30 29 28 26 21 13 7 5 6 9 9 7 7 6 5 3 3 4 3 2 3 5
55 63 69 68 65 61 57 54 52 53 52 49 47 46 44 41 38 36 36 37 37 36 33 30 27 21 11 4 1 3 6 7 6 4 5 4 3 2 3 3 2 2 2
57 61 63 62 61 59 56 52 50 50 52 52 49 45 43 41 38 37 38 40 40 39 36 32 27 20 11 3 0 1 4 6 6 5 5 5 5 3 3 4 5 4 4
58 58 56 56 59 59 56 52 49 49 52 52 47 43 41 39 38 40 40 40 40 38 35 30 24 18 10 3 0 1 4 6 7 6 5 5 5 4 3 4 6 6 5
57 55 54 57 61 61 57 53 49 48 50 49 45 42 41 39 40 42 43 40 37 35 31 26 21 17 10 4 0 1 4 6 7 6 5 5 4 3 2 3 5 5 5
55 54 54 57 59 59 57 54 49 45 44 46 47 45 42 39 40 42 43 39 33 29 27 24 20 16 11 6 2 1 2 5 7 7 6 5 3 1 1 2 4 4 4
55 54 53 54 55 56 56 53 48 42 41 45 48 46 41 37 36 38 38 34 28 24 23 21 19 16 12 8 3 1 1 3 6 7 6 5 3 1 0 1 2 2 2
52 53 52 53 54 55 55 51 46 42 41 43 45 43 39 36 34 34 32 27 23 20 19 19 18 17 13 9 5 2 1 1 3 4 4 2 1 0 0 0 0 0 0
50 50 52 53 55 55 52 47 43 42 42 42 42 41 39 36 33 30 26 22 19 18 17 17 17 16 14 10 7 4 2 2 2 2 2 1 0 0 0 0 0 0 0
50 51 51 53 54 52 47 43 41 41 40 39 38 38 37 35 30 24 20 16 15 15 15 14 14 14 12 9 6 5 4 4 3 2 2 2 1 1 1 1 0 0 0
52 52 51 51 52 50 45 41 41 41 40 37 36 35 35 33 27 20 15 11 11 12 12 12 12 11 9 6 5 4 4 4 4 3 3 3 2 2 2 2 1 0 0

GEFSMW_con_probscp_216.txt.gz
Probability
17 22 27 28 27 23 19 14 11 9 8 6 6 5 5 5 4 3 3 3 3 3 3 2 1 0 0 0 0 0 0 0 0 0 0 0 0 0 0 0 0 0 0
17 22 26 28 27 24 21 17 14 12 9 7 6 5 5 5 4 3 3 3 3 3 3 2 1 0 0 0 0 0 0 0 0 0 0 0 0 0 0 0 0 0 0
18 21 25 29 30 28 23 19 17 15 13 10 8 7 6 6 5 3 3 3 3 3 3 2 0 0 0 0 0 0 0 1 0 0 0 0 0 0 0 0 0 0 0
18 20 24 29 31 29 24 19 16 17 15 13 10 8 7 6 6 4 3 3 3 3 3 2 1 0 0 0 0 0 0 0 0 0 0 0 0 0 0 0 0 0 0
20 20 22 25 27 27 23 18 16 16 15 13 11 9 8 7 6 6 4 3 3 3 4 3 2 0 0 0 0 0 0 0 0 0 0 0 0 0 0 0 0 0 0
21 20 21 22 23 24 23 19 17 17 16 13 10 10 9 8 8 8 6 4 3 4 5 5 4 1 0 0 0 0 0 0 0 0 0 0 0 0 0 0 0 0 0
21 21 21 21 22 24 24 22 18 17 17 14 11 11 11 11 12 11 7 4 3 4 5 5 3 2 0 0 0 0 0 0 0 0 0 0 0 0 0 0 0 0 0
23 21 19 19 20 23 24 21 18 16 17 16 13 12 13 14 14 12 9 6 4 4 3 3 1 1 0 0 0 0 0 0 0 0 0 0 0 0 0 0 0 0 0
23 20 17 17 19 22 23 20 18 17 17 18 17 15 14 14 13 12 9 7 6 4 2 1 1 1 1 1 0 0 0 0 0 0 0 0 0 0 0 0 0 0 0
21 20 17 17 20 23 23 22 19 17 16 16 17 16 14 12 11 10 8 7 6 5 3 3 3 3 3 2 1 0 0 0 0 0 0 0 0 0 0 0 0 0 0
19 19 18 18 21 25 26 24 20 16 14 14 14 14 13 11 10 9 8 7 6 6 5 4 4 5 4 2 1 0 0 0 0 0 0 0 0 0 0 0 0 0 0
20 19 17 18 22 27 29 25 20 17 16 15 15 14 13 12 11 10 9 8 7 7 6 5 5 5 3 1 0 0 0 0 0 0 0 0 0 0 0 0 0 0 0
23 20 17 18 22 27 30 27 22 20 19 18 18 17 15 13 12 10 9 9 8 7 6 5 5 4 3 1 0 0 0 0 0 0 0 0 0 0 0 0 0 0 0
23 21 19 20 21 25 29 29 25 23 21 20 19 17 15 12 10 9 9 9 9 8 7 5 4 3 3 2 1 0 0 0 0 0 0 0 0 0 0 0 0 0 0
25 24 23 22 21 23 27 29 28 24 21 19 18 16 12 10 8 8 8 8 9 9 8 6 4 4 3 2 1 0 0 0 0 0 0 0 0 0 0 0 0 0 0
29 30 30 27 24 24 26 29 29 24 20 18 16 13 11 9 9 9 8 8 8 8 8 6 5 4 3 1 0 0 0 0 0 0 0 0 0 0 0 0 0 0 0
29 33 35 33 30 28 29 30 29 25 19 15 13 11 10 10 10 11 11 9 8 9 9 8 6 4 1 0 0 0 0 0 0 0 0 0 0 0 0 0 0 0 0
27 31 33 33 34 33 31 30 29 24 19 15 13 11 10 11 12 13 14 13 11 11 11 9 7 4 1 0 0 0 0 0 0 0 0 0 0 0 0 0 0 0 0
26 26 26 29 33 33 30 29 27 23 19 17 16 13 12 14 15 15 16 15 14 13 12 9 7 5 2 1 0 0 0 0 0 0 0 0 0 0 0 0 0 0 0
22 21 21 25 29 30 30 30 28 25 24 23 20 18 17 17 16 15 15 14 14 13 11 9 7 5 3 2 1 0 0 0 0 0 0 0 0 0 0 0 0 1 1
16 14 16 21 24 26 30 32 32 31 31 30 26 22 19 16 14 12 12 11 12 12 11 9 7 4 3 3 1 0 0 0 0 0 0 0 0 0 0 0 0 1 2
11 10 12 17 20 23 28 32 32 33 34 33 28 23 19 15 12 10 9 9 9 11 11 9 6 4 3 3 2 1 0 0 0 0 0 0 0 0 0 0 0 1 1
10 9 11 14 17 21 25 27 29 30 30 28 24 21 19 17 13 10 7 7 8 10 10 8 5 3 3 3 3 1 0 0 0 0 0 0 0 0 0 0 0 0 0
12 11 11 13 14 18 21 22 23 24 24 23 21 21 21 21 16 10 7 6 7 8 9 7 5 4 4 4 3 2 1 0 0 0 0 0 0 0 0 0 0 0 0
13 12 12 12 13 15 16 15 16 19 21 21 21 22 22 21 17 11 7 6 5 5 5 6 6 6 5 5 3 2 2 1 0 0 0 0 0 0 0 0 0 0 0
12 12 11 12 12 13 12 10 12 17 21 22 22 22 22 20 16 11 7 4 2 2 2 5 6 7 6 5 3 2 1 1 1 0 0 0 0 0 0 0 0 0 0

GEFSMW_con_probscp_222.txt.gz
Probability
0 0 1 2 4 5 5 5 5 5 4 3 2 1 0 0 0 0 0 0 1 2 1 0 0 0 0 0 0 0 0 0 0 0 0 0 0 0 0 0 0 0 0
0 0 0 2 4 5 6 7 7 7 6 4 2 1 0 0 0 0 0 1 2 2 1 0 0 0 0 0 0 0 0 0 0 0 0 0 0 0 0 0 0 0 0
0 0 1 3 4 5 6 7 8 9 8 5 3 2 1 1 1 1 1 1 3 3 1 0 0 0 0 0 0 0 0 0 0 0 0 0 0 0 0 0 0 0 0
0 0 1 4 6 6 6 7 8 9 8 5 4 3 2 2 2 2 2 3 3 3 2 1 0 0 0 0 0 0 0 0 0 0 0 0 0 0 0 0 0 0 0
0 0 2 5 7 7 7 8 9 9 8 5 4 3 3 3 4 3 3 3 3 3 3 1 0 0 0 0 0 0 0 0 0 0 0 0 0 0 0 0 0 0 0
1 1 3 6 8 8 8 8 9 9 7 5 4 4 4 6 6 4 3 3 3 3 3 2 1 0 0 0 0 0 0 0 0 0 0 0 0 0 0 0 0 0 0
3 4 5 8 9 10 9 8 7 6 4 3 3 4 6 8 7 5 3 3 3 3 3 2 1 0 0 0 0 0 0 0 0 0 0 0 0 0 0 0 0 0 0
8 8 7 8 10 11 11 8 5 2 1 0 1 3 6 7 6 4 2 2 3 3 2 2 1 0 0 0 0 0 0 0 0 0 0 0 0 0 0 0 0 0 0
12 11 9 8 10 11 11 9 4 2 0 0 1 3 5 7 6 5 4 4 4 3 3 2 1 0 0 0 0 0 0 0 0 0 0 0 0 0 0 0 0 0 0
11 10 9 8 9 9 9 7 4 1 0 1 2 3 5 7 8 7 7 6 5 4 3 2 1 0 0 0 0 0 0 0 0 0 0 0 0 0 0 0 0 0 0
6 7 7 6 6 7 7 5 3 1 1 3 3 4 5 7 8 9 8 6 5 4 3 2 1 0 0 0 0 0 0 0 0 0 0 0 0 0 0 0 0 0 0
3 5 6 6 7 8 7 5 4 3 4 4 3 3 4 5 7 7 6 5 5 4 3 2 1 0 0 0 0 0 0 0 0 0 0 0 0 0 0 0 0 0 0
6 6 6 7 9 9 9 8 7 7 6 5 3 2 2 4 5 4 4 4 4 4 4 3 1 0 0 0 0 0 0 0 0 0 0 0 0 0 0 0 0 0 0
11 9 8 9 10 9 9 11 12 11 10 7 5 3 3 3 3 2 2 2 3 5 5 4 2 1 0 0 0 0 0 0 0 0 0 0 0 0 0 0 0 0 0
15 13 11 11 10 10 11 14 14 13 11 9 6 4 3 2 1 1 1 1 1 4 5 4 3 1 0 0 0 0 0 0 0 0 0 0 0 0 0 0 0 0 0
15 15 14 12 11 12 14 15 16 14 11 9 7 4 2 1 0 0 1 0 0 2 3 3 3 2 1 0 0 0 0 0 0 0 0 0 0 0 0 0 0 0 0
15 14 13 11 11 13 15 16 17 16 14 12 10 8 5 3 2 2 2 1 0 0 1 1 3 3 2 0 0 0 0 0 0 0 0 0 0 0 0 0 0 0 0
13 12 10 8 8 12 15 17 18 18 17 15 15 15 12 8 6 5 4 2 1 0 0 0 1 1 1 0 0 0 0 0 0 0 0 0 0 0 0 0 0 0 0
12 10 7 5 6 10 14 17 18 17 16 16 17 18 16 12 8 7 6 5 3 1 1 1 1 1 1 1 0 0 1 1 0 0 0 0 0 0 0 0 0 0 0
13 11 7 5 7 11 15 17 17 16 15 15 16 17 16 14 11 10 9 7 4 3 3 3 3 3 3 2 1 1 2 2 1 0 0 0 0 0 0 0 0 0 0
13 11 9 8 9 14 17 17 16 16 15 14 15 16 16 15 14 13 12 8 6 6 6 5 4 4 4 3 1 1 2 2 1 1 1 0 0 0 0 0 0 0 0
11 10 10 10 11 14 17 18 17 17 16 15 15 17 17 15 14 14 11 9 7 7 6 6 5 4 3 2 1 0 1 2 2 2 2 1 0 0 0 0 0 0 0
10 9 9 10 10 12 15 17 17 18 19 18 17 18 18 17 15 14 11 10 8 7 6 6 6 4 3 1 0 0 0 1 2 2 2 1 0 0 0 0 0 0 0
9 9 9 8 8 9 11 13 15 17 18 18 17 17 17 17 17 16 13 11 10 8 7 7 6 4 2 1 1 1 1 1 1 1 1 0 0 0 0 0 0 0 0
8 8 8 6 5 7 8 10 13 15 16 15 14 13 14 15 17 17 14 11 9 8 7 6 6 4 2 1 1 2 2 2 1 0 0 0 0 0 1 1 1 0 0
7 8 7 4 3 5 7 9 11 14 15 13 12 12 13 14 16 17 14 10 7 6 5 6 6 4 2 2 1 1 1 1 1 0 0 0 0 1 2 2 2 1 0

GEFSMW_con_probscp_228.txt.gz
Probability
1 1 0 0 2 6 11 14 15 14 11 9 9 9 8 7 5 4 4 4 4 3 1 0 1 2 2 1 0 0 1 0 0 1 2 2 2 2 3 3 4 4 4
2 1 0 1 3 7 10 12 13 13 13 11 10 10 9 7 5 6 7 7 6 4 2 0 0 1 1 1 1 2 2 1 1 2 2 2 2 2 2 2 3 4 5
4 2 2 4 5 8 10 10 11 13 14 13 10 10 10 8 6 7 8 9 9 7 4 1 0 0 1 1 2 3 4 3 4 5 5 3 3 2 2 3 3 3 5
7 6 6 8 8 9 9 9 10 11 13 12 10 10 11 10 8 8 8 9 9 9 6 2 1 1 1 2 3 4 5 5 6 7 7 6 5 4 4 4 3 3 4
11 9 9 10 10 10 9 9 9 10 11 11 11 11 13 13 12 10 9 9 10 9 8 5 4 4 4 4 4 4 5 6 7 7 8 7 7 7 6 5 4 4 4
12 12 12 14 14 12 10 9 9 10 12 12 12 13 14 16 16 15 13 12 11 10 9 8 6 5 5 5 5 5 4 4 5 6 6 6 7 7 6 4 3 4 5
12 12 15 18 18 15 13 12 11 12 13 12 12 12 13 16 17 15 14 13 12 11 11 10 8 7 6 6 6 6 3 2 2 3 4 4 5 5 4 3 2 3 3
13 13 16 19 19 16 15 15 16 16 14 11 10 10 11 13 14 13 11 11 11 12 12 11 9 7 6 6 7 6 3 1 1 2 3 3 3 3 2 2 2 2 1
16 15 15 17 17 15 14 15 17 18 15 12 10 10 10 12 12 10 8 8 9 11 12 13 11 9 8 7 7 6 6 5 4 3 5 5 4 5 4 4 4 3 2
19 16 15 15 15 14 13 13 15 17 15 13 11 10 10 10 8 7 7 9 11 12 13 14 14 12 10 8 8 7 8 8 7 6 7 6 6 7 6 5 4 4 4
18 15 14 14 14 14 13 12 13 14 14 12 10 10 9 8 7 6 8 12 15 16 17 17 16 14 11 9 7 7 8 8 7 7 7 7 7 7 6 4 4 4 6
15 13 13 14 13 11 12 12 12 13 13 12 11 11 11 9 7 8 9 13 16 19 19 19 18 16 14 11 9 8 8 8 7 6 6 7 7 8 7 5 5 6 7
15 14 15 15 13 10 12 12 12 12 13 13 12 12 12 9 7 8 8 10 13 17 18 18 18 18 17 15 13 12 12 10 9 9 9 8 9 9 9 8 6 6 6
20 19 19 19 17 15 15 15 14 13 13 12 12 12 11 8 6 6 6 6 9 12 14 13 14 16 16 16 16 17 16 15 14 14 12 10 9 9 9 8 6 5 5
23 22 21 21 21 20 21 22 20 18 15 13 13 12 10 8 5 4 4 4 6 8 9 9 9 11 12 12 14 16 17 18 18 16 13 10 7 6 5 4 4 5 6
23 23 21 21 22 23 25 27 26 23 20 16 14 13 13 10 7 5 5 6 7 8 9 7 7 7 7 7 7 9 12 15 17 15 11 8 6 5 3 2 1 3 5
23 22 20 20 22 23 25 29 30 27 24 19 16 16 16 15 12 11 11 12 13 14 14 11 9 7 5 3 2 3 7 11 13 13 11 8 7 7 5 3 1 1 2
22 20 17 18 22 24 26 29 31 30 27 22 18 19 20 19 17 18 19 20 20 20 19 16 12 8 5 3 1 2 5 9 11 11 10 8 7 7 7 5 3 1 1
24 20 17 19 23 26 28 29 30 30 28 23 21 22 24 23 23 23 23 24 25 23 21 17 12 8 6 3 1 1 5 9 10 11 10 8 6 6 5 4 3 3 2
25 24 23 23 25 27 28 28 27 27 27 24 23 26 28 27 26 25 24 25 24 22 18 14 10 8 7 4 1 2 5 8 9 10 9 6 5 4 3 3 3 3 3
25 26 26 25 25 26 27 26 25 24 24 24 25 29 30 28 26 25 24 23 22 20 17 14 11 10 9 6 2 2 5 7 8 9 7 5 3 2 2 2 3 3 3
26 26 25 25 26 28 29 27 24 23 25 27 28 31 31 28 27 27 25 23 21 19 17 16 13 11 10 7 3 1 3 5 7 8 5 3 2 1 0 1 2 2 1
24 23 22 24 28 31 32 29 26 26 28 31 32 32 31 29 28 29 28 25 23 20 18 17 14 12 11 9 4 1 1 3 5 5 3 1 1 0 0 0 1 1 1
22 19 17 21 27 31 31 30 29 28 30 32 32 30 29 28 27 27 27 26 25 22 20 17 14 12 12 11 8 5 3 3 3 3 3 1 1 1 1 1 1 1 2
24 20 17 18 23 27 29 29 29 27 28 29 28 26 25 26 25 22 21 22 22 21 19 15 13 12 12 12 9 7 5 4 3 3 4 4 4 3 3 2 2 3 3
28 23 18 17 20 24 26 28 28 26 26 26 25 24 24 25 24 20 18 17 18 18 16 14 12 12 12 10 7 5 4 3 3 4 6 6 5 4 4 3 3 3 3

GEFSMW_con_probscp_234.txt.gz
Probability
6 6 8 13 19 23 25 24 21 18 13 10 13 19 20 17 17 19 18 16 14 10 7 7 6 4 3 1 1 1 1 2 4 4 3 2 3 3 4 4 4 5 5
7 7 9 14 20 25 26 25 23 20 16 12 12 16 17 16 16 18 18 16 15 13 11 10 8 5 3 2 2 2 2 3 4 4 3 2 3 3 2 2 3 4 4
9 10 12 16 21 26 26 25 25 22 18 14 13 13 15 17 18 19 18 17 16 15 14 12 10 8 5 4 3 4 3 3 3 3 3 3 3 3 1 1 2 3 3
12 15 16 17 22 25 26 26 26 23 17 15 14 14 16 19 20 20 20 18 17 16 14 12 11 10 9 6 5 5 4 3 2 2 4 4 3 2 2 2 2 3 3
16 20 21 20 21 24 26 27 27 24 18 15 15 16 18 19 19 19 20 20 19 19 17 14 12 11 11 9 7 6 5 3 1 2 4 4 4 3 3 4 4 4 4
17 23 26 24 23 24 25 26 27 25 21 18 17 17 18 18 18 20 22 21 21 21 19 15 12 11 11 10 8 6 5 3 2 3 4 4 5 5 5 5 5 4 4
17 23 28 29 28 27 25 27 30 29 24 22 21 19 19 19 20 23 23 20 19 19 18 16 14 12 11 10 9 9 8 7 7 6 7 6 6 6 5 4 4 4 4
20 23 28 33 33 29 26 29 34 33 26 23 23 22 22 22 22 23 21 18 16 16 17 18 17 15 14 14 13 13 13 13 12 9 9 8 6 6 6 6 4 4 3
25 27 32 35 34 30 27 31 36 34 27 23 24 24 24 23 23 21 19 17 16 16 17 19 20 20 19 19 19 18 17 17 16 12 11 9 8 7 8 8 7 6 5
29 32 36 37 33 29 29 33 36 34 28 26 25 24 23 22 21 20 17 16 16 17 17 19 20 22 22 22 21 20 19 19 18 16 13 11 9 8 9 10 10 9 6
30 33 38 38 35 30 30 34 36 34 29 26 26 25 24 21 20 20 18 16 14 15 16 17 19 20 21 21 21 20 19 18 17 16 14 12 10 9 9 9 10 9 7
31 35 39 40 37 34 34 37 37 36 32 29 29 28 26 22 20 18 16 13 11 11 13 15 16 17 18 20 20 20 19 18 17 17 16 14 13 11 10 9 8 7 6
36 41 46 44 39 39 42 42 39 37 36 36 35 33 29 24 20 16 12 10 10 10 11 14 15 15 15 17 19 21 21 21 21 20 19 17 15 13 11 9 8 6 5
43 48 53 50 45 47 49 45 40 39 42 43 41 37 32 26 22 17 13 11 11 11 11 13 15 14 13 14 17 20 21 21 20 19 18 17 14 12 10 10 9 8 7
49 54 59 57 53 54 53 48 43 44 46 45 42 38 33 28 24 21 16 14 14 13 13 13 14 13 11 9 12 16 17 16 15 15 14 13 10 9 8 8 9 10 10
55 59 62 60 57 56 56 52 48 47 48 46 41 38 34 29 25 23 20 17 18 18 17 16 15 13 9 6 8 11 13 11 10 11 10 7 6 7 7 7 7 7 9
61 64 65 63 60 58 58 55 50 48 47 45 42 39 35 30 27 26 25 25 26 26 24 22 19 16 10 5 4 7 9 9 8 9 9 7 5 6 8 8 6 6 6
62 62 63 62 60 59 57 53 48 44 43 43 43 41 36 33 32 32 34 35 35 33 30 26 24 21 14 5 2 4 8 9 9 9 10 9 8 7 8 9 9 9 9
55 56 55 54 55 56 53 47 43 40 37 39 42 40 36 35 35 37 39 40 39 36 32 29 28 25 17 7 1 3 8 9 8 9 10 10 8 6 6 9 12 14 14
50 50 48 48 50 51 48 43 40 38 36 38 41 38 34 33 34 36 40 41 39 35 32 31 30 26 18 8 2 3 6 8 7 8 9 8 7 5 4 7 12 14 14
47 47 47 49 50 49 45 43 42 40 39 40 39 36 33 31 32 34 38 39 38 35 33 32 29 25 18 9 3 2 3 5 6 7 7 6 4 2 2 4 7 9 10
42 43 47 50 51 49 46 46 47 46 44 41 38 35 33 32 32 34 35 36 36 34 33 30 27 24 18 10 4 1 1 3 5 6 6 5 2 0 0 1 2 3 3
37 39 43 46 47 45 45 48 50 50 46 42 39 36 34 33 34 34 32 31 31 30 28 26 24 23 19 13 7 3 1 1 3 5 5 3 1 0 0 0 0 0 0
38 36 37 41 42 40 41 45 47 47 44 40 37 35 33 31 32 32 28 25 25 25 25 24 23 22 19 15 11 6 3 2 3 3 3 1 1 0 0 0 1 1 1
40 37 36 39 41 40 40 42 43 42 40 37 31 28 28 28 28 27 23 20 20 20 20 20 20 19 16 12 11 9 5 4 4 4 3 3 3 1 1 1 2 2 2
41 39 38 40 43 43 43 44 43 41 38 34 28 23 23 25 25 24 20 16 15 15 15 16 17 15 11 8 8 8 6 4 4 5 5 5 4 3 2 2 3 3 3

GEFSMW_con_probscp_240.txt.gz
Probability
7 12 13 10 7 4 3 2 1 1 1 2 2 2 1 2 3 4 3 2 1 1 1 0 0 0 0 0 0 0 0 0 0 0 0 0 0 0 0 0 0 0 0
7 11 13 11 9 6 4 3 2 2 2 3 3 3 4 4 5 4 4 3 3 2 2 1 0 0 0 0 0 0 0 0 0 0 0 0 0 0 0 0 0 0 0
7 9 12 13 12 9 6 4 3 4 4 5 5 6 6 7 6 5 5 6 5 5 3 1 0 0 0 0 0 0 0 0 0 0 0 0 0 0 0 0 0 0 0
9 9 11 12 12 10 8 6 6 6 6 6 6 6 7 8 8 7 6 6 6 6 5 3 1 1 0 0 0 0 0 0 0 0 0 0 0 0 0 0 0 0 0
11 10 10 10 9 9 9 9 9 8 7 5 5 7 9 10 9 7 5 5 6 6 6 5 3 2 1 0 0 0 0 0 0 0 0 0 0 0 0 0 0 0 0
14 11 8 8 9 9 10 10 10 9 7 6 5 6 9 10 10 7 4 4 6 6 6 5 4 3 2 1 0 0 0 0 0 1 1 0 0 0 0 0 0 0 0
16 12 9 10 12 13 12 11 10 9 8 7 6 6 8 10 9 6 3 4 6 7 7 6 4 3 3 2 1 1 1 1 1 2 2 1 1 1 0 0 0 0 0
17 15 13 13 16 16 13 11 9 7 8 8 7 6 6 7 7 5 3 3 5 7 7 7 5 4 3 4 3 3 3 2 3 3 3 3 2 2 1 0 0 0 0
18 18 17 18 20 19 14 11 10 9 9 9 8 7 5 5 4 4 3 2 2 3 4 4 4 3 4 4 5 5 4 3 3 3 3 3 3 3 1 1 1 0 0
21 23 23 23 23 20 15 13 14 14 13 12 10 7 6 5 5 5 4 1 0 1 1 2 3 4 4 5 5 6 5 4 3 3 3 3 4 3 3 2 2 1 0
24 26 27 26 23 19 14 13 15 16 17 16 12 9 8 7 6 5 3 1 0 1 3 4 5 6 6 6 6 6 6 4 3 3 2 3 4 4 3 3 3 2 1
25 26 27 26 22 19 17 16 16 16 17 16 15 12 10 8 6 4 2 1 0 2 3 4 5 6 6 6 6 6 6 5 3 1 1 1 2 3 2 2 2 1 0
27 25 25 25 23 21 22 21 19 18 18 17 17 16 13 9 5 3 2 0 0 1 1 2 2 4 5 6 6 6 6 4 2 0 0 0 1 1 1 1 1 0 0
30 27 24 24 23 23 23 23 21 20 20 20 20 20 17 11 7 4 2 0 0 0 1 1 1 2 4 4 4 4 4 3 1 0 0 0 0 0 0 0 0 0 0
30 27 23 22 22 21 21 20 20 21 22 23 24 23 20 15 11 7 4 2 2 2 3 3 3 3 3 3 3 3 3 3 1 0 0 0 0 0 0 0 0 0 0
30 26 23 21 20 19 17 16 17 20 23 25 25 24 21 17 13 9 7 7 6 6 6 6 5 4 3 3 3 3 3 3 1 0 0 1 1 0 0 0 0 0 0
32 28 25 24 21 18 15 14 15 18 21 23 24 23 21 19 15 12 12 11 10 9 9 9 8 5 3 3 2 3 3 2 1 0 1 2 2 1 1 1 1 0 0
33 30 28 28 26 20 15 14 15 16 19 20 22 23 23 21 18 16 15 14 12 11 11 12 10 7 4 3 2 2 3 3 1 0 1 2 3 3 2 2 2 1 0
30 28 28 30 28 22 17 16 16 17 19 20 22 24 23 22 20 20 20 18 16 15 15 15 13 10 7 5 2 2 4 4 2 1 1 3 4 4 3 3 3 2 1
28 26 27 29 27 23 20 18 18 20 22 22 22 23 21 20 20 21 21 21 20 19 19 17 14 11 9 6 3 2 3 4 3 3 3 4 4 3 2 2 3 2 1
26 25 25 26 24 21 19 18 19 21 22 21 20 18 16 17 18 19 20 22 22 21 20 17 14 12 10 7 4 2 2 3 4 5 6 5 4 2 1 1 2 2 1
21 23 25 24 20 18 16 16 16 16 17 17 15 13 12 13 14 17 20 21 22 22 20 17 15 13 10 7 4 2 1 2 3 5 6 5 3 1 0 1 1 1 0
16 19 23 23 19 15 14 12 11 12 14 15 13 11 10 10 12 15 17 18 20 21 19 17 16 15 12 8 4 2 1 1 2 3 4 3 2 1 0 0 0 0 0
14 16 18 19 16 13 12 10 9 10 12 13 12 11 10 10 11 12 14 15 17 19 19 17 15 15 14 10 5 2 1 1 1 1 1 1 1 0 0 0 0 0 0
14 13 13 13 11 9 10 10 9 10 12 12 11 10 9 10 10 10 10 11 13 14 14 14 13 14 15 12 6 3 2 1 0 0 0 1 1 1 1 2 1 1 1
13 12 10 10 9 8 10 10 10 11 13 13 11 9 9 11 11 9 9 9 9 10 10 10 11 13 13 11 6 2 2 1 0 0 1 3 3 2 2 3 2 2 2